Observation data for Lomax on 08/20/2019      Previous  Date       Current Mesonet Observations  Soil Data  Daily Summary Page  Observations in Plain Language
KLO1 200500Z 16006KT 29/16 A3005 RMK A01 T02870155  RH  045%=      5-min Rain = 0
KLO1 200501Z 16006KT 29/16 A3005 RMK A01 T02870155  RH  045%=      5-min Rain = 0
KLO1 200502Z 15006KT 29/16 A3005 RMK A01 T02870155  RH  045%=      5-min Rain = 0
KLO1 200503Z 15007KT 29/16 A3004 RMK A01 T02860155  RH  045%=      5-min Rain = 0
KLO1 200504Z 15007KT 29/16 A3005 RMK A01 T02860155  RH  045%=      5-min Rain = 0
KLO1 200505Z 15007KT 29/16 A3004 RMK A01 T02860155  RH  045%=      5-min Rain = 0
KLO1 200506Z 15006KT 29/16 A3004 RMK A01 T02870155  RH  045%=      5-min Rain = 0
KLO1 200507Z 15007KT 29/16 A3004 RMK A01 T02870155  RH  045%=      5-min Rain = 0
KLO1 200508Z 15007KT 29/16 A3004 RMK A01 T02880155  RH  045%=      5-min Rain = 0
KLO1 200509Z 15007KT 29/16 A3004 RMK A01 T02880155  RH  044%=      5-min Rain = 0
KLO1 200510Z 15007KT 29/16 A3004 RMK A01 T02880155  RH  044%=      5-min Rain = 0
KLO1 200511Z 15006KT 29/16 A3005 RMK A01 T02880155  RH  044%=      5-min Rain = 0
KLO1 200512Z 14006KT 29/16 A3005 RMK A01 T02880155  RH  044%=      5-min Rain = 0
KLO1 200513Z 14007KT 29/16 A3005 RMK A01 T02880155  RH  044%=      5-min Rain = 0
KLO1 200514Z 15006KT 29/16 A3005 RMK A01 T02880155  RH  044%=      5-min Rain = 0
KLO1 200515Z 15007KT 29/16 A3005 RMK A01 T02870155  RH  045%=      5-min Rain = 0
KLO1 200516Z 15006KT 29/16 A3005 RMK A01 T02870155  RH  045%=      5-min Rain = 0
KLO1 200517Z 15006KT 29/16 A3005 RMK A01 T02870155  RH  045%=      5-min Rain = 0
KLO1 200518Z 15006KT 29/16 A3005 RMK A01 T02860155  RH  045%=      5-min Rain = 0
KLO1 200519Z 15006KT 29/16 A3005 RMK A01 T02850155  RH  045%=      5-min Rain = 0
KLO1 200520Z 15007KT 29/16 A3005 RMK A01 T02850155  RH  045%=      5-min Rain = 0
KLO1 200521Z 15006KT 28/16 A3005 RMK A01 T02840155  RH  045%=      5-min Rain = 0
KLO1 200522Z 15006KT 28/16 A3005 RMK A01 T02840155  RH  046%=      5-min Rain = 0
KLO1 200523Z 15007KT 28/16 A3005 RMK A01 T02830156  RH  046%=      5-min Rain = 0
KLO1 200524Z 15007KT 28/16 A3005 RMK A01 T02830155  RH  046%=      5-min Rain = 0
KLO1 200525Z 15007KT 28/16 A3005 RMK A01 T02820156  RH  046%=      5-min Rain = 0
KLO1 200526Z 15007KT 28/16 A3005 RMK A01 T02810156  RH  046%=      5-min Rain = 0
KLO1 200527Z 14007KT 28/16 A3005 RMK A01 T02810155  RH  046%=      5-min Rain = 0
KLO1 200528Z 14007KT 28/16 A3005 RMK A01 T02800155  RH  047%=      5-min Rain = 0
KLO1 200529Z 15006KT 28/16 A3005 RMK A01 T02800155  RH  047%=      5-min Rain = 0
KLO1 200530Z 14006KT 28/16 A3005 RMK A01 T02800156  RH  047%=      5-min Rain = 0
KLO1 200531Z 14006KT 28/16 A3005 RMK A01 T02790155  RH  047%=      5-min Rain = 0
KLO1 200532Z 14006KT 28/16 A3005 RMK A01 T02780155  RH  047%=      5-min Rain = 0
KLO1 200533Z 15006KT 28/16 A3005 RMK A01 T02780156  RH  047%=      5-min Rain = 0
KLO1 200534Z 14006KT 28/16 A3005 RMK A01 T02780155  RH  047%=      5-min Rain = 0
KLO1 200535Z 14006KT 28/16 A3005 RMK A01 T02770156  RH  047%=      5-min Rain = 0
KLO1 200536Z 14006KT 28/16 A3005 RMK A01 T02770156  RH  048%=      5-min Rain = 0
KLO1 200537Z 14006KT 28/16 A3005 RMK A01 T02770156  RH  048%=      5-min Rain = 0
KLO1 200538Z 14006KT 28/16 A3005 RMK A01 T02760156  RH  048%=      5-min Rain = 0
KLO1 200539Z 14006KT 28/16 A3005 RMK A01 T02760156  RH  048%=      5-min Rain = 0
KLO1 200540Z 14006KT 28/16 A3005 RMK A01 T02750156  RH  048%=      5-min Rain = 0
KLO1 200541Z 14006KT 27/16 A3005 RMK A01 T02740156  RH  048%=      5-min Rain = 0
KLO1 200542Z 14006KT 27/16 A3005 RMK A01 T02740156  RH  049%=      5-min Rain = 0
KLO1 200543Z 14006KT 27/16 A3005 RMK A01 T02740156  RH  049%=      5-min Rain = 0
KLO1 200544Z 14007KT 27/16 A3005 RMK A01 T02730156  RH  049%=      5-min Rain = 0
KLO1 200545Z 14007KT 27/16 A3005 RMK A01 T02720156  RH  049%=      5-min Rain = 0
KLO1 200546Z 14007KT 27/16 A3005 RMK A01 T02720157  RH  049%=      5-min Rain = 0
KLO1 200547Z 14006KT 27/16 A3005 RMK A01 T02710157  RH  049%=      5-min Rain = 0
KLO1 200548Z 14006KT 27/16 A3005 RMK A01 T02710157  RH  050%=      5-min Rain = 0
KLO1 200549Z 14006KT 27/16 A3005 RMK A01 T02700157  RH  050%=      5-min Rain = 0
KLO1 200550Z 14006KT 27/16 A3005 RMK A01 T02700157  RH  050%=      5-min Rain = 0
KLO1 200551Z 14006KT 27/16 A3005 RMK A01 T02690157  RH  050%=      5-min Rain = 0
KLO1 200552Z 15006KT 27/16 A3005 RMK A01 T02690157  RH  050%=      5-min Rain = 0
KLO1 200553Z 14007KT 27/16 A3005 RMK A01 T02690157  RH  051%=      5-min Rain = 0
KLO1 200554Z 14007KT 27/16 A3005 RMK A01 T02680157  RH  051%=      5-min Rain = 0
KLO1 200555Z 14007KT 27/16 A3005 RMK A01 T02680157  RH  051%=      5-min Rain = 0
KLO1 200556Z 15006KT 27/16 A3005 RMK A01 T02680157  RH  051%=      5-min Rain = 0
KLO1 200557Z 14007KT 27/16 A3005 RMK A01 T02680157  RH  051%=      5-min Rain = 0
KLO1 200558Z 15007KT 27/16 A3005 RMK A01 T02680157  RH  051%=      5-min Rain = 0
KLO1 200559Z 15007KT 27/16 A3005 RMK A01 T02680157  RH  051%=      5-min Rain = 0
KLO1 200600Z 15007KT 27/16 A3005 RMK A01 T02670156  RH  051%=      5-min Rain = 0
KLO1 200601Z 14007KT 27/16 A3005 RMK A01 T02680156  RH  050%=      5-min Rain = 0
KLO1 200602Z 15007KT 27/16 A3005 RMK A01 T02680156  RH  050%=      5-min Rain = 0
KLO1 200603Z 15007KT 27/16 A3005 RMK A01 T02680156  RH  050%=      5-min Rain = 0
KLO1 200604Z 15007KT 27/16 A3005 RMK A01 T02680155  RH  050%=      5-min Rain = 0
KLO1 200605Z 15006KT 27/16 A3005 RMK A01 T02680155  RH  050%=      5-min Rain = 0
KLO1 200606Z 14007KT 27/16 A3005 RMK A01 T02680155  RH  050%=      5-min Rain = 0
KLO1 200607Z 14007KT 27/16 A3005 RMK A01 T02680155  RH  050%=      5-min Rain = 0
KLO1 200608Z 15007KT 27/15 A3005 RMK A01 T02680154  RH  050%=      5-min Rain = 0
KLO1 200609Z 14007KT 27/15 A3005 RMK A01 T02670154  RH  050%=      5-min Rain = 0
KLO1 200610Z 15007KT 27/15 A3005 RMK A01 T02680154  RH  050%=      5-min Rain = 0
KLO1 200611Z 15007KT 27/15 A3005 RMK A01 T02670154  RH  050%=      5-min Rain = 0
KLO1 200612Z 15007KT 27/15 A3005 RMK A01 T02670154  RH  050%=      5-min Rain = 0
KLO1 200613Z 15007KT 27/15 A3005 RMK A01 T02670154  RH  050%=      5-min Rain = 0
KLO1 200614Z 15007KT 27/15 A3005 RMK A01 T02670154  RH  050%=      5-min Rain = 0
KLO1 200615Z 15007KT 27/15 A3005 RMK A01 T02670154  RH  050%=      5-min Rain = 0
KLO1 200616Z 15007KT 27/15 A3005 RMK A01 T02670154  RH  050%=      5-min Rain = 0
KLO1 200617Z 15007KT 27/15 A3005 RMK A01 T02670153  RH  050%=      5-min Rain = 0
KLO1 200618Z 15007KT 27/15 A3005 RMK A01 T02670154  RH  050%=      5-min Rain = 0
KLO1 200619Z 15007KT 27/15 A3005 RMK A01 T02660153  RH  050%=      5-min Rain = 0
KLO1 200620Z 15007KT 27/15 A3005 RMK A01 T02670152  RH  049%=      5-min Rain = 0
KLO1 200621Z 15007KT 27/15 A3005 RMK A01 T02670152  RH  049%=      5-min Rain = 0
KLO1 200622Z 15006KT 27/15 A3005 RMK A01 T02670152  RH  049%=      5-min Rain = 0
KLO1 200623Z 15007KT 27/15 A3005 RMK A01 T02670151  RH  049%=      5-min Rain = 0
KLO1 200624Z 15007KT 27/15 A3005 RMK A01 T02670151  RH  049%=      5-min Rain = 0
KLO1 200625Z 15007KT 27/15 A3005 RMK A01 T02670151  RH  049%=      5-min Rain = 0
KLO1 200626Z 15007KT 27/15 A3005 RMK A01 T02670151  RH  049%=      5-min Rain = 0
KLO1 200627Z 15007KT 27/15 A3005 RMK A01 T02670150  RH  049%=      5-min Rain = 0
KLO1 200628Z 15006KT 27/15 A3005 RMK A01 T02670151  RH  049%=      5-min Rain = 0
KLO1 200629Z 15006KT 27/15 A3005 RMK A01 T02670151  RH  049%=      5-min Rain = 0
KLO1 200630Z 15007KT 27/15 A3005 RMK A01 T02670150  RH  049%=      5-min Rain = 0
KLO1 200631Z 15006KT 27/15 A3005 RMK A01 T02670150  RH  049%=      5-min Rain = 0
KLO1 200632Z 15007KT 27/15 A3005 RMK A01 T02670150  RH  049%=      5-min Rain = 0
KLO1 200633Z 15006KT 27/15 A3005 RMK A01 T02670150  RH  049%=      5-min Rain = 0
KLO1 200634Z 15006KT 27/15 A3005 RMK A01 T02670150  RH  049%=      5-min Rain = 0
KLO1 200635Z 15006KT 27/15 A3005 RMK A01 T02670150  RH  048%=      5-min Rain = 0
KLO1 200636Z 15006KT 27/15 A3005 RMK A01 T02670150  RH  048%=      5-min Rain = 0
KLO1 200637Z 14007KT 27/15 A3005 RMK A01 T02670150  RH  049%=      5-min Rain = 0
KLO1 200638Z 15007KT 27/15 A3005 RMK A01 T02660149  RH  049%=      5-min Rain = 0
KLO1 200639Z 15007KT 27/15 A3005 RMK A01 T02670150  RH  049%=      5-min Rain = 0
KLO1 200640Z 14006KT 27/15 A3005 RMK A01 T02660150  RH  049%=      5-min Rain = 0
KLO1 200641Z 15006KT 27/15 A3005 RMK A01 T02660150  RH  049%=      5-min Rain = 0
KLO1 200642Z 14006KT 27/15 A3005 RMK A01 T02650150  RH  049%=      5-min Rain = 0
KLO1 200643Z 14006KT 27/15 A3005 RMK A01 T02650150  RH  049%=      5-min Rain = 0
KLO1 200644Z 15006KT 27/15 A3005 RMK A01 T02650150  RH  049%=      5-min Rain = 0
KLO1 200645Z 15006KT 26/15 A3005 RMK A01 T02640150  RH  049%=      5-min Rain = 0
KLO1 200646Z 15006KT 26/15 A3005 RMK A01 T02630150  RH  050%=      5-min Rain = 0
KLO1 200647Z 14006KT 26/15 A3005 RMK A01 T02630150  RH  050%=      5-min Rain = 0
KLO1 200648Z 15006KT 26/15 A3005 RMK A01 T02620150  RH  050%=      5-min Rain = 0
KLO1 200649Z 14006KT 26/15 A3005 RMK A01 T02620150  RH  050%=      5-min Rain = 0
KLO1 200650Z 14006KT 26/15 A3005 RMK A01 T02610150  RH  050%=      5-min Rain = 0
KLO1 200651Z 14005KT 26/15 A3005 RMK A01 T02610150  RH  050%=      5-min Rain = 0
KLO1 200652Z 14005KT 26/15 A3005 RMK A01 T02600150  RH  051%=      5-min Rain = 0
KLO1 200653Z 14005KT 26/15 A3005 RMK A01 T02600150  RH  051%=      5-min Rain = 0
KLO1 200654Z 14005KT 26/15 A3005 RMK A01 T02590150  RH  051%=      5-min Rain = 0
KLO1 200655Z 14005KT 26/15 A3005 RMK A01 T02590151  RH  051%=      5-min Rain = 0
KLO1 200656Z 14005KT 26/15 A3005 RMK A01 T02590151  RH  051%=      5-min Rain = 0
KLO1 200657Z 14005KT 26/15 A3005 RMK A01 T02580151  RH  051%=      5-min Rain = 0
KLO1 200658Z 14004KT 26/15 A3005 RMK A01 T02580151  RH  052%=      5-min Rain = 0
KLO1 200659Z 14005KT 26/15 A3005 RMK A01 T02570151  RH  052%=      5-min Rain = 0
KLO1 200700Z 14004KT 26/15 A3005 RMK A01 T02570151  RH  052%=      5-min Rain = 0
KLO1 200701Z 14004KT 26/15 A3005 RMK A01 T02560151  RH  052%=      5-min Rain = 0
KLO1 200702Z 15004KT 26/15 A3005 RMK A01 T02560151  RH  052%=      5-min Rain = 0
KLO1 200703Z 14004KT 26/15 A3005 RMK A01 T02550151  RH  052%=      5-min Rain = 0
KLO1 200704Z 14004KT 26/15 A3005 RMK A01 T02550151  RH  052%=      5-min Rain = 0
KLO1 200705Z 14004KT 26/15 A3005 RMK A01 T02550151  RH  053%=      5-min Rain = 0
KLO1 200706Z 14004KT 25/15 A3005 RMK A01 T02540151  RH  053%=      5-min Rain = 0
KLO1 200707Z 14004KT 25/15 A3005 RMK A01 T02540151  RH  053%=      5-min Rain = 0
KLO1 200708Z 14004KT 25/15 A3005 RMK A01 T02530151  RH  053%=      5-min Rain = 0
KLO1 200709Z 14004KT 25/15 A3005 RMK A01 T02530151  RH  053%=      5-min Rain = 0
KLO1 200710Z 14004KT 25/15 A3005 RMK A01 T02520151  RH  053%=      5-min Rain = 0
KLO1 200711Z 14004KT 25/15 A3005 RMK A01 T02520151  RH  054%=      5-min Rain = 0
KLO1 200712Z 15004KT 25/15 A3005 RMK A01 T02510151  RH  054%=      5-min Rain = 0
KLO1 200713Z 15003KT 25/15 A3005 RMK A01 T02510151  RH  054%=      5-min Rain = 0
KLO1 200714Z 15003KT 25/15 A3005 RMK A01 T02510151  RH  054%=      5-min Rain = 0
KLO1 200715Z 15003KT 25/15 A3005 RMK A01 T02500151  RH  054%=      5-min Rain = 0
KLO1 200716Z 15003KT 25/15 A3005 RMK A01 T02500152  RH  054%=      5-min Rain = 0
KLO1 200717Z 15003KT 25/15 A3005 RMK A01 T02500152  RH  054%=      5-min Rain = 0
KLO1 200718Z 15003KT 25/15 A3005 RMK A01 T02490152  RH  055%=      5-min Rain = 0
KLO1 200719Z 15003KT 25/15 A3005 RMK A01 T02490152  RH  055%=      5-min Rain = 0
KLO1 200720Z 15003KT 25/15 A3005 RMK A01 T02490152  RH  055%=      5-min Rain = 0
KLO1 200721Z 15003KT 25/15 A3005 RMK A01 T02480152  RH  055%=      5-min Rain = 0
KLO1 200722Z 15003KT 25/15 A3005 RMK A01 T02480152  RH  055%=      5-min Rain = 0
KLO1 200723Z 15003KT 25/15 A3005 RMK A01 T02480152  RH  055%=      5-min Rain = 0
KLO1 200724Z 15003KT 25/15 A3005 RMK A01 T02470152  RH  055%=      5-min Rain = 0
KLO1 200725Z 15003KT 25/15 A3005 RMK A01 T02470152  RH  055%=      5-min Rain = 0
KLO1 200726Z 15003KT 25/15 A3005 RMK A01 T02470152  RH  056%=      5-min Rain = 0
KLO1 200727Z 15003KT 25/15 A3005 RMK A01 T02460152  RH  056%=      5-min Rain = 0
KLO1 200728Z 15003KT 25/15 A3005 RMK A01 T02460152  RH  056%=      5-min Rain = 0
KLO1 200729Z 15003KT 25/15 A3005 RMK A01 T02460152  RH  056%=      5-min Rain = 0
KLO1 200730Z 15003KT 25/15 A3005 RMK A01 T02460152  RH  056%=      5-min Rain = 0
KLO1 200731Z 15003KT 25/15 A3005 RMK A01 T02450152  RH  056%=      5-min Rain = 0
KLO1 200732Z 16003KT 25/15 A3005 RMK A01 T02450152  RH  056%=      5-min Rain = 0
KLO1 200733Z 16003KT 25/15 A3005 RMK A01 T02450152  RH  056%=      5-min Rain = 0
KLO1 200734Z 15003KT 25/15 A3005 RMK A01 T02450152  RH  056%=      5-min Rain = 0
KLO1 200735Z 15003KT 25/15 A3005 RMK A01 T02450151  RH  056%=      5-min Rain = 0
KLO1 200736Z 15003KT 25/15 A3005 RMK A01 T02450151  RH  056%=      5-min Rain = 0
KLO1 200737Z 15003KT 24/15 A3005 RMK A01 T02440151  RH  056%=      5-min Rain = 0
KLO1 200738Z 15003KT 24/15 A3005 RMK A01 T02440151  RH  056%=      5-min Rain = 0
KLO1 200739Z 15003KT 24/15 A3005 RMK A01 T02440151  RH  056%=      5-min Rain = 0
KLO1 200740Z 15003KT 24/15 A3005 RMK A01 T02430151  RH  056%=      5-min Rain = 0
KLO1 200741Z 15002KT 24/15 A3005 RMK A01 T02430151  RH  056%=      5-min Rain = 0
KLO1 200742Z 15003KT 24/15 A3005 RMK A01 T02430151  RH  056%=      5-min Rain = 0
KLO1 200743Z 15002KT 24/15 A3005 RMK A01 T02420151  RH  057%=      5-min Rain = 0
KLO1 200744Z 15002KT 24/15 A3005 RMK A01 T02420151  RH  057%=      5-min Rain = 0
KLO1 200745Z 14002KT 24/15 A3005 RMK A01 T02420151  RH  057%=      5-min Rain = 0
KLO1 200746Z 14002KT 24/15 A3005 RMK A01 T02410150  RH  057%=      5-min Rain = 0
KLO1 200747Z 15002KT 24/15 A3005 RMK A01 T02410150  RH  057%=      5-min Rain = 0
KLO1 200748Z 14002KT 24/15 A3005 RMK A01 T02410150  RH  057%=      5-min Rain = 0
KLO1 200749Z 14002KT 24/15 A3005 RMK A01 T02410150  RH  057%=      5-min Rain = 0
KLO1 200750Z 14002KT 24/15 A3005 RMK A01 T02400150  RH  057%=      5-min Rain = 0
KLO1 200751Z 13001KT 24/15 A3005 RMK A01 T02400150  RH  057%=      5-min Rain = 0
KLO1 200752Z 14001KT 24/15 A3005 RMK A01 T02400150  RH  057%=      5-min Rain = 0
KLO1 200753Z 13000KT 24/15 A3005 RMK A01 T02400150  RH  057%=      5-min Rain = 0
KLO1 200754Z 13000KT 24/15 A3005 RMK A01 T02400150  RH  057%=      5-min Rain = 0
KLO1 200755Z 13000KT 24/15 A3005 RMK A01 T02390150  RH  057%=      5-min Rain = 0
KLO1 200756Z 13001KT 24/15 A3005 RMK A01 T02390150  RH  057%=      5-min Rain = 0
KLO1 200757Z 13001KT 24/15 A3005 RMK A01 T02390150  RH  057%=      5-min Rain = 0
KLO1 200758Z 12001KT 24/15 A3005 RMK A01 T02390150  RH  058%=      5-min Rain = 0
KLO1 200759Z 12001KT 24/15 A3005 RMK A01 T02390151  RH  058%=      5-min Rain = 0
KLO1 200800Z 13001KT 24/15 A3005 RMK A01 T02400151  RH  057%=      5-min Rain = 0
KLO1 200801Z 13000KT 24/15 A3005 RMK A01 T02400150  RH  057%=      5-min Rain = 0
KLO1 200802Z 16000KT 24/15 A3005 RMK A01 T02400151  RH  058%=      5-min Rain = 0
KLO1 200803Z 12000KT 24/15 A3005 RMK A01 T02400151  RH  057%=      5-min Rain = 0
KLO1 200804Z 12001KT 24/15 A3005 RMK A01 T02400151  RH  057%=      5-min Rain = 0
KLO1 200805Z 12001KT 24/15 A3006 RMK A01 T02400152  RH  058%=      5-min Rain = 0
KLO1 200806Z 12001KT 24/15 A3006 RMK A01 T02400152  RH  058%=      5-min Rain = 0
KLO1 200807Z 12001KT 24/15 A3006 RMK A01 T02400153  RH  058%=      5-min Rain = 0
KLO1 200808Z 11001KT 24/15 A3006 RMK A01 T02400153  RH  058%=      5-min Rain = 0
KLO1 200809Z 11001KT 24/15 A3006 RMK A01 T02400153  RH  058%=      5-min Rain = 0
KLO1 200810Z 12001KT 24/15 A3006 RMK A01 T02400153  RH  058%=      5-min Rain = 0
KLO1 200811Z 12001KT 24/15 A3006 RMK A01 T02410153  RH  058%=      5-min Rain = 0
KLO1 200812Z 13001KT 24/15 A3006 RMK A01 T02400153  RH  058%=      5-min Rain = 0
KLO1 200813Z 13001KT 24/15 A3006 RMK A01 T02400152  RH  058%=      5-min Rain = 0
KLO1 200814Z 12002KT 24/15 A3006 RMK A01 T02400151  RH  058%=      5-min Rain = 0
KLO1 200815Z 12002KT 24/15 A3006 RMK A01 T02400151  RH  058%=      5-min Rain = 0
KLO1 200816Z 12002KT 24/15 A3006 RMK A01 T02400151  RH  057%=      5-min Rain = 0
KLO1 200817Z 12002KT 24/15 A3006 RMK A01 T02400150  RH  057%=      5-min Rain = 0
KLO1 200818Z 12002KT 24/15 A3006 RMK A01 T02400150  RH  057%=      5-min Rain = 0
KLO1 200819Z 11002KT 24/15 A3006 RMK A01 T02400150  RH  057%=      5-min Rain = 0
KLO1 200820Z 11002KT 24/15 A3006 RMK A01 T02400149  RH  057%=      5-min Rain = 0
KLO1 200821Z 11002KT 24/15 A3006 RMK A01 T02400149  RH  057%=      5-min Rain = 0
KLO1 200822Z 10002KT 24/15 A3006 RMK A01 T02400148  RH  057%=      5-min Rain = 0
KLO1 200823Z 10002KT 24/15 A3006 RMK A01 T02400148  RH  056%=      5-min Rain = 0
KLO1 200824Z 10002KT 24/15 A3006 RMK A01 T02390147  RH  056%=      5-min Rain = 0
KLO1 200825Z 09002KT 24/15 A3006 RMK A01 T02390146  RH  056%=      5-min Rain = 0
KLO1 200826Z 09002KT 24/14 A3006 RMK A01 T02380144  RH  056%=      5-min Rain = 0
KLO1 200827Z 08002KT 24/14 A3006 RMK A01 T02360143  RH  056%=      5-min Rain = 0
KLO1 200828Z 07002KT 23/14 A3006 RMK A01 T02340143  RH  056%=      5-min Rain = 0
KLO1 200829Z 07002KT 23/14 A3006 RMK A01 T02330142  RH  057%=      5-min Rain = 0
KLO1 200830Z 06002KT 23/14 A3006 RMK A01 T02320142  RH  057%=      5-min Rain = 0
KLO1 200831Z 07002KT 23/14 A3006 RMK A01 T02300142  RH  057%=      5-min Rain = 0
KLO1 200832Z 06002KT 23/14 A3006 RMK A01 T02290142  RH  058%=      5-min Rain = 0
KLO1 200833Z 06002KT 23/14 A3006 RMK A01 T02280143  RH  058%=      5-min Rain = 0
KLO1 200834Z 06002KT 23/14 A3006 RMK A01 T02280143  RH  058%=      5-min Rain = 0
KLO1 200835Z 05002KT 23/14 A3006 RMK A01 T02280144  RH  059%=      5-min Rain = 0
KLO1 200836Z 05002KT 23/15 A3006 RMK A01 T02300145  RH  059%=      5-min Rain = 0
KLO1 200837Z 04002KT 23/15 A3006 RMK A01 T02320145  RH  058%=      5-min Rain = 0
KLO1 200838Z 04002KT 23/15 A3006 RMK A01 T02330145  RH  058%=      5-min Rain = 0
KLO1 200839Z 03002KT 24/15 A3006 RMK A01 T02350145  RH  057%=      5-min Rain = 0
KLO1 200840Z 04002KT 24/15 A3006 RMK A01 T02360145  RH  056%=      5-min Rain = 0
KLO1 200841Z 03001KT 24/15 A3006 RMK A01 T02370145  RH  056%=      5-min Rain = 0
KLO1 200842Z 01001KT 24/15 A3006 RMK A01 T02380145  RH  056%=      5-min Rain = 0
KLO1 200843Z 02001KT 24/15 A3006 RMK A01 T02380145  RH  056%=      5-min Rain = 0
KLO1 200844Z 01001KT 24/14 A3006 RMK A01 T02380144  RH  056%=      5-min Rain = 0
KLO1 200845Z 02001KT 24/14 A3006 RMK A01 T02370144  RH  056%=      5-min Rain = 0
KLO1 200846Z 03001KT 24/14 A3006 RMK A01 T02360144  RH  056%=      5-min Rain = 0
KLO1 200847Z 04001KT 24/15 A3006 RMK A01 T02360145  RH  056%=      5-min Rain = 0
KLO1 200848Z 06001KT 24/15 A3006 RMK A01 T02370145  RH  056%=      5-min Rain = 0
KLO1 200849Z 08001KT 24/15 A3006 RMK A01 T02370145  RH  056%=      5-min Rain = 0
KLO1 200850Z 09001KT 24/15 A3006 RMK A01 T02380146  RH  056%=      5-min Rain = 0
KLO1 200851Z 09001KT 24/15 A3006 RMK A01 T02380145  RH  056%=      5-min Rain = 0
KLO1 200852Z 09001KT 24/15 A3006 RMK A01 T02380145  RH  056%=      5-min Rain = 0
KLO1 200853Z 09001KT 24/15 A3006 RMK A01 T02380145  RH  056%=      5-min Rain = 0
KLO1 200854Z 10002KT 24/15 A3006 RMK A01 T02380145  RH  056%=      5-min Rain = 0
KLO1 200855Z 11002KT 24/15 A3006 RMK A01 T02390145  RH  056%=      5-min Rain = 0
KLO1 200856Z 11002KT 24/15 A3006 RMK A01 T02400146  RH  056%=      5-min Rain = 0
KLO1 200857Z 11002KT 24/15 A3006 RMK A01 T02410146  RH  056%=      5-min Rain = 0
KLO1 200858Z 11002KT 24/15 A3006 RMK A01 T02410146  RH  055%=      5-min Rain = 0
KLO1 200859Z 12002KT 24/15 A3006 RMK A01 T02410146  RH  055%=      5-min Rain = 0
KLO1 200900Z 12001KT 24/15 A3006 RMK A01 T02410146  RH  055%=      5-min Rain = 0
KLO1 200901Z 12001KT 24/15 A3006 RMK A01 T02410146  RH  055%=      5-min Rain = 0
KLO1 200902Z 13001KT 24/15 A3006 RMK A01 T02410146  RH  055%=      5-min Rain = 0
KLO1 200903Z 14002KT 24/15 A3006 RMK A01 T02400146  RH  055%=      5-min Rain = 0
KLO1 200904Z 14002KT 24/15 A3006 RMK A01 T02400145  RH  055%=      5-min Rain = 0
KLO1 200905Z 14002KT 24/15 A3006 RMK A01 T02400145  RH  055%=      5-min Rain = 0
KLO1 200906Z 14002KT 24/15 A3006 RMK A01 T02400146  RH  056%=      5-min Rain = 0
KLO1 200907Z 14003KT 24/15 A3006 RMK A01 T02400146  RH  056%=      5-min Rain = 0
KLO1 200908Z 14003KT 24/15 A3006 RMK A01 T02390146  RH  056%=      5-min Rain = 0
KLO1 200909Z 13003KT 24/15 A3006 RMK A01 T02370146  RH  057%=      5-min Rain = 0
KLO1 200910Z 13003KT 24/15 A3006 RMK A01 T02360146  RH  057%=      5-min Rain = 0
KLO1 200911Z 14003KT 23/15 A3006 RMK A01 T02340146  RH  058%=      5-min Rain = 0
KLO1 200912Z 14003KT 23/15 A3006 RMK A01 T02330146  RH  058%=      5-min Rain = 0
KLO1 200913Z 14003KT 23/15 A3006 RMK A01 T02320146  RH  058%=      5-min Rain = 0
KLO1 200914Z 15003KT 23/15 A3006 RMK A01 T02320146  RH  059%=      5-min Rain = 0
KLO1 200915Z 15003KT 23/15 A3006 RMK A01 T02320147  RH  059%=      5-min Rain = 0
KLO1 200916Z 15003KT 23/15 A3006 RMK A01 T02310147  RH  059%=      5-min Rain = 0
KLO1 200917Z 16003KT 23/15 A3006 RMK A01 T02310147  RH  059%=      5-min Rain = 0
KLO1 200918Z 16003KT 23/15 A3006 RMK A01 T02300147  RH  059%=      5-min Rain = 0
KLO1 200919Z 16003KT 23/15 A3006 RMK A01 T02300147  RH  059%=      5-min Rain = 0
KLO1 200920Z 16003KT 23/15 A3006 RMK A01 T02300147  RH  059%=      5-min Rain = 0
KLO1 200921Z 16003KT 23/15 A3006 RMK A01 T02300147  RH  059%=      5-min Rain = 0
KLO1 200922Z 15003KT 23/15 A3006 RMK A01 T02300147  RH  059%=      5-min Rain = 0
KLO1 200923Z 15003KT 23/15 A3006 RMK A01 T02300146  RH  059%=      5-min Rain = 0
KLO1 200924Z 15003KT 23/15 A3006 RMK A01 T02300146  RH  059%=      5-min Rain = 0
KLO1 200925Z 15003KT 23/15 A3006 RMK A01 T02310146  RH  059%=      5-min Rain = 0
KLO1 200926Z 15003KT 23/15 A3006 RMK A01 T02310147  RH  059%=      5-min Rain = 0
KLO1 200927Z 15003KT 23/15 A3006 RMK A01 T02310147  RH  059%=      5-min Rain = 0
KLO1 200928Z 15003KT 23/15 A3006 RMK A01 T02310147  RH  059%=      5-min Rain = 0
KLO1 200929Z 15003KT 23/15 A3006 RMK A01 T02300147  RH  059%=      5-min Rain = 0
KLO1 200930Z 15003KT 23/15 A3006 RMK A01 T02300147  RH  060%=      5-min Rain = 0
KLO1 200931Z 15003KT 23/15 A3006 RMK A01 T02300148  RH  060%=      5-min Rain = 0
KLO1 200932Z 15004KT 23/15 A3006 RMK A01 T02290148  RH  060%=      5-min Rain = 0
KLO1 200933Z 15004KT 23/15 A3006 RMK A01 T02290148  RH  060%=      5-min Rain = 0
KLO1 200934Z 15004KT 23/15 A3006 RMK A01 T02290149  RH  061%=      5-min Rain = 0
KLO1 200935Z 15004KT 23/15 A3006 RMK A01 T02280149  RH  061%=      5-min Rain = 0
KLO1 200936Z 15004KT 23/15 A3006 RMK A01 T02280149  RH  061%=      5-min Rain = 0
KLO1 200937Z 15004KT 23/15 A3006 RMK A01 T02280149  RH  061%=      5-min Rain = 0
KLO1 200938Z 15004KT 23/15 A3006 RMK A01 T02280149  RH  061%=      5-min Rain = 0
KLO1 200939Z 15004KT 23/15 A3006 RMK A01 T02280149  RH  061%=      5-min Rain = 0
KLO1 200940Z 15005KT 23/15 A3006 RMK A01 T02280150  RH  061%=      5-min Rain = 0
KLO1 200941Z 15005KT 23/15 A3006 RMK A01 T02280150  RH  061%=      5-min Rain = 0
KLO1 200942Z 15005KT 23/15 A3006 RMK A01 T02280150  RH  061%=      5-min Rain = 0
KLO1 200943Z 15005KT 23/15 A3006 RMK A01 T02280150  RH  062%=      5-min Rain = 0
KLO1 200944Z 15005KT 23/15 A3006 RMK A01 T02280151  RH  062%=      5-min Rain = 0
KLO1 200945Z 15005KT 23/15 A3006 RMK A01 T02280151  RH  062%=      5-min Rain = 0
KLO1 200946Z 15006KT 23/15 A3006 RMK A01 T02280151  RH  062%=      5-min Rain = 0
KLO1 200947Z 14006KT 23/15 A3006 RMK A01 T02280151  RH  062%=      5-min Rain = 0
KLO1 200948Z 14006KT 23/15 A3006 RMK A01 T02280151  RH  062%=      5-min Rain = 0
KLO1 200949Z 14006KT 23/15 A3006 RMK A01 T02280151  RH  062%=      5-min Rain = 0
KLO1 200950Z 14006KT 23/15 A3006 RMK A01 T02270151  RH  062%=      5-min Rain = 0
KLO1 200951Z 14006KT 23/15 A3006 RMK A01 T02270150  RH  062%=      5-min Rain = 0
KLO1 200952Z 14006KT 23/15 A3006 RMK A01 T02270150  RH  062%=      5-min Rain = 0
KLO1 200953Z 14006KT 23/15 A3006 RMK A01 T02280150  RH  061%=      5-min Rain = 0
KLO1 200954Z 14006KT 23/15 A3006 RMK A01 T02280150  RH  061%=      5-min Rain = 0
KLO1 200955Z 14006KT 23/15 A3006 RMK A01 T02280150  RH  061%=      5-min Rain = 0
KLO1 200956Z 14005KT 23/15 A3006 RMK A01 T02280150  RH  061%=      5-min Rain = 0
KLO1 200957Z 15005KT 23/15 A3006 RMK A01 T02290150  RH  061%=      5-min Rain = 0
KLO1 200958Z 15005KT 23/15 A3006 RMK A01 T02290150  RH  061%=      5-min Rain = 0
KLO1 200959Z 15005KT 23/15 A3006 RMK A01 T02290150  RH  061%=      5-min Rain = 0
KLO1 201000Z 15005KT 23/15 A3006 RMK A01 T02290150  RH  061%=      5-min Rain = 0
KLO1 201001Z 15005KT 23/15 A3006 RMK A01 T02280150  RH  061%=      5-min Rain = 0
KLO1 201002Z 15005KT 23/15 A3006 RMK A01 T02290150  RH  061%=      5-min Rain = 0
KLO1 201003Z 15005KT 23/15 A3006 RMK A01 T02290150  RH  061%=      5-min Rain = 0
KLO1 201004Z 16005KT 23/15 A3006 RMK A01 T02280150  RH  061%=      5-min Rain = 0
KLO1 201005Z 16005KT 23/15 A3006 RMK A01 T02280150  RH  061%=      5-min Rain = 0
KLO1 201006Z 16005KT 23/15 A3006 RMK A01 T02280150  RH  062%=      5-min Rain = 0
KLO1 201007Z 16005KT 23/15 A3006 RMK A01 T02280150  RH  062%=      5-min Rain = 0
KLO1 201008Z 16004KT 23/15 A3006 RMK A01 T02270150  RH  062%=      5-min Rain = 0
KLO1 201009Z 16004KT 23/15 A3006 RMK A01 T02270150  RH  062%=      5-min Rain = 0
KLO1 201010Z 16004KT 23/15 A3006 RMK A01 T02270150  RH  061%=      5-min Rain = 0
KLO1 201011Z 17005KT 23/15 A3006 RMK A01 T02270149  RH  061%=      5-min Rain = 0
KLO1 201012Z 16005KT 23/15 A3006 RMK A01 T02270149  RH  061%=      5-min Rain = 0
KLO1 201013Z 16005KT 23/15 A3006 RMK A01 T02280150  RH  061%=      5-min Rain = 0
KLO1 201014Z 16005KT 23/15 A3006 RMK A01 T02280150  RH  061%=      5-min Rain = 0
KLO1 201015Z 16005KT 23/15 A3006 RMK A01 T02280150  RH  061%=      5-min Rain = 0
KLO1 201016Z 16005KT 23/15 A3006 RMK A01 T02290151  RH  061%=      5-min Rain = 0
KLO1 201017Z 16004KT 23/15 A3006 RMK A01 T02280151  RH  062%=      5-min Rain = 0
KLO1 201018Z 16004KT 23/15 A3006 RMK A01 T02290151  RH  062%=      5-min Rain = 0
KLO1 201019Z 16004KT 23/15 A3006 RMK A01 T02280151  RH  062%=      5-min Rain = 0
KLO1 201020Z 16004KT 23/15 A3006 RMK A01 T02280152  RH  062%=      5-min Rain = 0
KLO1 201021Z 16004KT 23/15 A3006 RMK A01 T02270152  RH  062%=      5-min Rain = 0
KLO1 201022Z 16004KT 23/15 A3006 RMK A01 T02270152  RH  063%=      5-min Rain = 0
KLO1 201023Z 16004KT 23/15 A3006 RMK A01 T02260152  RH  063%=      5-min Rain = 0
KLO1 201024Z 15004KT 23/15 A3006 RMK A01 T02260153  RH  063%=      5-min Rain = 0
KLO1 201025Z 15004KT 23/15 A3006 RMK A01 T02250153  RH  064%=      5-min Rain = 0
KLO1 201026Z 16004KT 22/15 A3006 RMK A01 T02240153  RH  064%=      5-min Rain = 0
KLO1 201027Z 15004KT 22/15 A3006 RMK A01 T02240153  RH  064%=      5-min Rain = 0
KLO1 201028Z 15004KT 22/15 A3006 RMK A01 T02240153  RH  064%=      5-min Rain = 0
KLO1 201029Z 15004KT 22/15 A3006 RMK A01 T02230153  RH  065%=      5-min Rain = 0
KLO1 201030Z 15005KT 22/15 A3006 RMK A01 T02230153  RH  065%=      5-min Rain = 0
KLO1 201031Z 15005KT 22/15 A3006 RMK A01 T02230154  RH  065%=      5-min Rain = 0
KLO1 201032Z 15004KT 22/15 A3006 RMK A01 T02230154  RH  065%=      5-min Rain = 0
KLO1 201033Z 15004KT 22/15 A3006 RMK A01 T02230154  RH  065%=      5-min Rain = 0
KLO1 201034Z 15005KT 22/15 A3006 RMK A01 T02230154  RH  065%=      5-min Rain = 0
KLO1 201035Z 15005KT 22/15 A3006 RMK A01 T02230154  RH  065%=      5-min Rain = 0
KLO1 201036Z 15005KT 22/15 A3006 RMK A01 T02230154  RH  065%=      5-min Rain = 0
KLO1 201037Z 15005KT 22/15 A3006 RMK A01 T02230154  RH  065%=      5-min Rain = 0
KLO1 201038Z 15005KT 22/15 A3006 RMK A01 T02230154  RH  065%=      5-min Rain = 0
KLO1 201039Z 16005KT 22/15 A3006 RMK A01 T02230154  RH  065%=      5-min Rain = 0
KLO1 201040Z 15005KT 22/15 A3006 RMK A01 T02240154  RH  065%=      5-min Rain = 0
KLO1 201041Z 15005KT 22/15 A3006 RMK A01 T02240154  RH  065%=      5-min Rain = 0
KLO1 201042Z 15005KT 22/15 A3006 RMK A01 T02230154  RH  065%=      5-min Rain = 0
KLO1 201043Z 15005KT 22/16 A3006 RMK A01 T02240155  RH  065%=      5-min Rain = 0
KLO1 201044Z 15005KT 22/16 A3006 RMK A01 T02240155  RH  065%=      5-min Rain = 0
KLO1 201045Z 15004KT 22/16 A3006 RMK A01 T02240155  RH  065%=      5-min Rain = 0
KLO1 201046Z 15004KT 22/16 A3006 RMK A01 T02240155  RH  065%=      5-min Rain = 0
KLO1 201047Z 15004KT 22/16 A3006 RMK A01 T02240155  RH  065%=      5-min Rain = 0
KLO1 201048Z 15004KT 22/16 A3006 RMK A01 T02240155  RH  065%=      5-min Rain = 0
KLO1 201049Z 15004KT 22/16 A3006 RMK A01 T02240155  RH  065%=      5-min Rain = 0
KLO1 201050Z 15004KT 22/16 A3006 RMK A01 T02240155  RH  065%=      5-min Rain = 0
KLO1 201051Z 15003KT 22/16 A3007 RMK A01 T02240155  RH  065%=      5-min Rain = 0
KLO1 201052Z 15003KT 22/16 A3007 RMK A01 T02240155  RH  065%=      5-min Rain = 0
KLO1 201053Z 15003KT 22/16 A3007 RMK A01 T02240155  RH  065%=      5-min Rain = 0
KLO1 201054Z 15003KT 22/16 A3007 RMK A01 T02240155  RH  065%=      5-min Rain = 0
KLO1 201055Z 15003KT 22/16 A3007 RMK A01 T02240155  RH  065%=      5-min Rain = 0
KLO1 201056Z 15002KT 22/16 A3007 RMK A01 T02240155  RH  065%=      5-min Rain = 0
KLO1 201057Z 15002KT 22/16 A3007 RMK A01 T02240155  RH  065%=      5-min Rain = 0
KLO1 201058Z 16002KT 23/16 A3007 RMK A01 T02250156  RH  065%=      5-min Rain = 0
KLO1 201059Z 16002KT 22/16 A3007 RMK A01 T02240155  RH  065%=      5-min Rain = 0
KLO1 201100Z 15002KT 22/16 A3007 RMK A01 T02240155  RH  065%=      5-min Rain = 0
KLO1 201101Z 15002KT 23/16 A3007 RMK A01 T02250156  RH  065%=      5-min Rain = 0
KLO1 201102Z 15002KT 22/16 A3007 RMK A01 T02240155  RH  065%=      5-min Rain = 0
KLO1 201103Z 15002KT 22/16 A3007 RMK A01 T02240155  RH  065%=      5-min Rain = 0
KLO1 201104Z 14002KT 23/16 A3007 RMK A01 T02250156  RH  065%=      5-min Rain = 0
KLO1 201105Z 15002KT 22/16 A3007 RMK A01 T02240157  RH  066%=      5-min Rain = 0
KLO1 201106Z 14002KT 22/16 A3007 RMK A01 T02240157  RH  066%=      5-min Rain = 0
KLO1 201107Z 14002KT 22/16 A3007 RMK A01 T02240158  RH  066%=      5-min Rain = 0
KLO1 201108Z 14002KT 22/16 A3007 RMK A01 T02240159  RH  067%=      5-min Rain = 0
KLO1 201109Z 14002KT 22/16 A3007 RMK A01 T02240159  RH  067%=      5-min Rain = 0
KLO1 201110Z 13002KT 22/16 A3007 RMK A01 T02230159  RH  067%=      5-min Rain = 0
KLO1 201111Z 13002KT 22/16 A3007 RMK A01 T02230159  RH  067%=      5-min Rain = 0
KLO1 201112Z 12002KT 22/16 A3007 RMK A01 T02230159  RH  067%=      5-min Rain = 0
KLO1 201113Z 12002KT 22/16 A3007 RMK A01 T02230159  RH  067%=      5-min Rain = 0
KLO1 201114Z 12001KT 22/16 A3007 RMK A01 T02220159  RH  068%=      5-min Rain = 0
KLO1 201115Z 12001KT 22/16 A3007 RMK A01 T02210159  RH  068%=      5-min Rain = 0
KLO1 201116Z 12001KT 22/16 A3007 RMK A01 T02210159  RH  068%=      5-min Rain = 0
KLO1 201117Z 12001KT 22/16 A3007 RMK A01 T02210158  RH  067%=      5-min Rain = 0
KLO1 201118Z 12001KT 22/16 A3007 RMK A01 T02210157  RH  067%=      5-min Rain = 0
KLO1 201119Z 12001KT 22/16 A3007 RMK A01 T02200155  RH  067%=      5-min Rain = 0
KLO1 201120Z 12002KT 22/16 A3007 RMK A01 T02200155  RH  067%=      5-min Rain = 0
KLO1 201121Z 12001KT 22/15 A3007 RMK A01 T02190154  RH  067%=      5-min Rain = 0
KLO1 201122Z 13001KT 22/15 A3008 RMK A01 T02190153  RH  066%=      5-min Rain = 0
KLO1 201123Z 13001KT 22/15 A3008 RMK A01 T02180152  RH  066%=      5-min Rain = 0
KLO1 201124Z 13001KT 22/15 A3008 RMK A01 T02180152  RH  066%=      5-min Rain = 0
KLO1 201125Z 13001KT 22/15 A3008 RMK A01 T02180152  RH  066%=      5-min Rain = 0
KLO1 201126Z 13001KT 22/15 A3008 RMK A01 T02180152  RH  066%=      5-min Rain = 0
KLO1 201127Z 13001KT 22/15 A3008 RMK A01 T02180153  RH  067%=      5-min Rain = 0
KLO1 201128Z 13001KT 22/15 A3008 RMK A01 T02180153  RH  066%=      5-min Rain = 0
KLO1 201129Z 13001KT 22/15 A3008 RMK A01 T02180152  RH  066%=      5-min Rain = 0
KLO1 201130Z 13001KT 22/15 A3008 RMK A01 T02180152  RH  066%=      5-min Rain = 0
KLO1 201131Z 13001KT 22/15 A3008 RMK A01 T02180152  RH  066%=      5-min Rain = 0
KLO1 201132Z 13001KT 22/15 A3008 RMK A01 T02170152  RH  066%=      5-min Rain = 0
KLO1 201133Z 13001KT 22/15 A3008 RMK A01 T02180152  RH  066%=      5-min Rain = 0
KLO1 201134Z 13001KT 22/15 A3008 RMK A01 T02180152  RH  066%=      5-min Rain = 0
KLO1 201135Z 13001KT 22/15 A3008 RMK A01 T02180152  RH  066%=      5-min Rain = 0
KLO1 201136Z 12001KT 22/15 A3008 RMK A01 T02170152  RH  066%=      5-min Rain = 0
KLO1 201137Z 12001KT 22/15 A3008 RMK A01 T02180153  RH  067%=      5-min Rain = 0
KLO1 201138Z 12001KT 22/15 A3008 RMK A01 T02180153  RH  067%=      5-min Rain = 0
KLO1 201139Z 12001KT 22/15 A3008 RMK A01 T02170153  RH  067%=      5-min Rain = 0
KLO1 201140Z 11001KT 22/15 A3008 RMK A01 T02170152  RH  067%=      5-min Rain = 0
KLO1 201141Z 10001KT 22/15 A3008 RMK A01 T02160152  RH  067%=      5-min Rain = 0
KLO1 201142Z 11001KT 22/15 A3008 RMK A01 T02160152  RH  067%=      5-min Rain = 0
KLO1 201143Z 12001KT 22/15 A3008 RMK A01 T02160153  RH  067%=      5-min Rain = 0
KLO1 201144Z 12001KT 22/15 A3008 RMK A01 T02160153  RH  067%=      5-min Rain = 0
KLO1 201145Z 12001KT 22/15 A3008 RMK A01 T02160153  RH  067%=      5-min Rain = 0
KLO1 201146Z 12001KT 22/15 A3008 RMK A01 T02160154  RH  068%=      5-min Rain = 0
KLO1 201147Z 12001KT 22/16 A3008 RMK A01 T02160155  RH  068%=      5-min Rain = 0
KLO1 201148Z 12002KT 22/16 A3008 RMK A01 T02160155  RH  068%=      5-min Rain = 0
KLO1 201149Z 12002KT 22/16 A3008 RMK A01 T02170155  RH  068%=      5-min Rain = 0
KLO1 201150Z 12002KT 22/16 A3008 RMK A01 T02180155  RH  067%=      5-min Rain = 0
KLO1 201151Z 12002KT 22/15 A3008 RMK A01 T02180154  RH  067%=      5-min Rain = 0
KLO1 201152Z 13002KT 22/15 A3008 RMK A01 T02190154  RH  066%=      5-min Rain = 0
KLO1 201153Z 13002KT 22/15 A3008 RMK A01 T02190153  RH  066%=      5-min Rain = 0
KLO1 201154Z 13002KT 22/15 A3008 RMK A01 T02200153  RH  066%=      5-min Rain = 0
KLO1 201155Z 13002KT 22/15 A3008 RMK A01 T02200153  RH  065%=      5-min Rain = 0
KLO1 201156Z 14002KT 22/15 A3008 RMK A01 T02200152  RH  065%=      5-min Rain = 0
KLO1 201157Z 14002KT 22/15 A3008 RMK A01 T02200152  RH  065%=      5-min Rain = 0
KLO1 201158Z 14002KT 22/15 A3008 RMK A01 T02200152  RH  065%=      5-min Rain = 0
KLO1 201159Z 15002KT 22/15 A3008 RMK A01 T02210152  RH  065%=      5-min Rain = 0
KLO1 201200Z 15002KT 22/15 A3008 RMK A01 T02210152  RH  065%=      5-min Rain = 0
KLO1 201201Z 15003KT 22/15 A3008 RMK A01 T02210152  RH  065%=      5-min Rain = 0
KLO1 201202Z 15003KT 22/15 A3008 RMK A01 T02210153  RH  065%=      5-min Rain = 0
KLO1 201203Z 16003KT 22/15 A3008 RMK A01 T02210153  RH  065%=      5-min Rain = 0
KLO1 201204Z 16002KT 22/15 A3008 RMK A01 T02220153  RH  065%=      5-min Rain = 0
KLO1 201205Z 17002KT 22/15 A3008 RMK A01 T02220153  RH  065%=      5-min Rain = 0
KLO1 201206Z 17002KT 22/15 A3008 RMK A01 T02220154  RH  065%=      5-min Rain = 0
KLO1 201207Z 17002KT 22/16 A3008 RMK A01 T02220155  RH  066%=      5-min Rain = 0
KLO1 201208Z 17002KT 22/16 A3008 RMK A01 T02220155  RH  066%=      5-min Rain = 0
KLO1 201209Z 16002KT 22/16 A3008 RMK A01 T02220155  RH  066%=      5-min Rain = 0
KLO1 201210Z 15001KT 22/16 A3008 RMK A01 T02230155  RH  066%=      5-min Rain = 0
KLO1 201211Z 15002KT 22/16 A3008 RMK A01 T02230155  RH  065%=      5-min Rain = 0
KLO1 201212Z 14002KT 22/16 A3008 RMK A01 T02230155  RH  066%=      5-min Rain = 0
KLO1 201213Z 14002KT 22/16 A3008 RMK A01 T02230156  RH  066%=      5-min Rain = 0
KLO1 201214Z 14002KT 22/16 A3008 RMK A01 T02220156  RH  066%=      5-min Rain = 0
KLO1 201215Z 14002KT 22/16 A3008 RMK A01 T02220156  RH  066%=      5-min Rain = 0
KLO1 201216Z 15002KT 22/16 A3008 RMK A01 T02230156  RH  066%=      5-min Rain = 0
KLO1 201217Z 15002KT 22/16 A3008 RMK A01 T02230156  RH  066%=      5-min Rain = 0
KLO1 201218Z 15003KT 22/16 A3008 RMK A01 T02230157  RH  066%=      5-min Rain = 0
KLO1 201219Z 15003KT 22/16 A3008 RMK A01 T02240157  RH  066%=      5-min Rain = 0
KLO1 201220Z 15003KT 23/16 A3008 RMK A01 T02250157  RH  065%=      5-min Rain = 0
KLO1 201221Z 16003KT 22/16 A3008 RMK A01 T02240157  RH  066%=      5-min Rain = 0
KLO1 201222Z 16003KT 22/16 A3008 RMK A01 T02240157  RH  066%=      5-min Rain = 0
KLO1 201223Z 16004KT 23/16 A3008 RMK A01 T02250157  RH  065%=      5-min Rain = 0
KLO1 201224Z 16004KT 22/16 A3008 RMK A01 T02240157  RH  066%=      5-min Rain = 0
KLO1 201225Z 16004KT 22/16 A3008 RMK A01 T02240158  RH  066%=      5-min Rain = 0
KLO1 201226Z 16004KT 22/16 A3008 RMK A01 T02240159  RH  066%=      5-min Rain = 0
KLO1 201227Z 16004KT 23/16 A3008 RMK A01 T02250159  RH  066%=      5-min Rain = 0
KLO1 201228Z 15004KT 23/16 A3008 RMK A01 T02250159  RH  066%=      5-min Rain = 0
KLO1 201229Z 15004KT 23/16 A3008 RMK A01 T02250158  RH  066%=      5-min Rain = 0
KLO1 201230Z 15004KT 23/16 A3008 RMK A01 T02250159  RH  066%=      5-min Rain = 0
KLO1 201231Z 15004KT 23/16 A3008 RMK A01 T02250159  RH  066%=      5-min Rain = 0
KLO1 201232Z 15004KT 23/16 A3008 RMK A01 T02250159  RH  067%=      5-min Rain = 0
KLO1 201233Z 15005KT 22/16 A3008 RMK A01 T02240159  RH  067%=      5-min Rain = 0
KLO1 201234Z 15004KT 22/16 A3008 RMK A01 T02240159  RH  067%=      5-min Rain = 0
KLO1 201235Z 14004KT 22/16 A3008 RMK A01 T02230159  RH  067%=      5-min Rain = 0
KLO1 201236Z 14004KT 22/16 A3008 RMK A01 T02230160  RH  067%=      5-min Rain = 0
KLO1 201237Z 15004KT 22/16 A3008 RMK A01 T02230160  RH  067%=      5-min Rain = 0
KLO1 201238Z 15005KT 22/16 A3008 RMK A01 T02230160  RH  068%=      5-min Rain = 0
KLO1 201239Z 14005KT 22/16 A3008 RMK A01 T02230160  RH  068%=      5-min Rain = 0
KLO1 201240Z 14005KT 22/16 A3008 RMK A01 T02230160  RH  067%=      5-min Rain = 0
KLO1 201241Z 14005KT 22/16 A3008 RMK A01 T02230159  RH  067%=      5-min Rain = 0
KLO1 201242Z 14005KT 22/16 A3008 RMK A01 T02230159  RH  067%=      5-min Rain = 0
KLO1 201243Z 14005KT 22/16 A3008 RMK A01 T02230159  RH  067%=      5-min Rain = 0
KLO1 201244Z 14005KT 22/16 A3008 RMK A01 T02230159  RH  067%=      5-min Rain = 0
KLO1 201245Z 14005KT 22/16 A3008 RMK A01 T02230160  RH  067%=      5-min Rain = 0
KLO1 201246Z 14005KT 22/16 A3008 RMK A01 T02240160  RH  067%=      5-min Rain = 0
KLO1 201247Z 14005KT 22/16 A3008 RMK A01 T02240160  RH  067%=      5-min Rain = 0
KLO1 201248Z 14005KT 23/16 A3008 RMK A01 T02250161  RH  067%=      5-min Rain = 0
KLO1 201249Z 14005KT 23/16 A3008 RMK A01 T02260161  RH  067%=      5-min Rain = 0
KLO1 201250Z 13005KT 23/16 A3008 RMK A01 T02260162  RH  067%=      5-min Rain = 0
KLO1 201251Z 13005KT 23/16 A3008 RMK A01 T02260162  RH  067%=      5-min Rain = 0
KLO1 201252Z 13005KT 23/16 A3008 RMK A01 T02260162  RH  067%=      5-min Rain = 0
KLO1 201253Z 12005KT 23/16 A3008 RMK A01 T02260161  RH  067%=      5-min Rain = 0
KLO1 201254Z 13006KT 23/16 A3009 RMK A01 T02260161  RH  067%=      5-min Rain = 0
KLO1 201255Z 13005KT 23/16 A3009 RMK A01 T02260161  RH  067%=      5-min Rain = 0
KLO1 201256Z 13005KT 23/16 A3008 RMK A01 T02270162  RH  067%=      5-min Rain = 0
KLO1 201257Z 13005KT 23/16 A3008 RMK A01 T02270163  RH  067%=      5-min Rain = 0
KLO1 201258Z 13005KT 23/16 A3008 RMK A01 T02280164  RH  067%=      5-min Rain = 0
KLO1 201259Z 13006KT 23/16 A3009 RMK A01 T02290164  RH  067%=      5-min Rain = 0
KLO1 201300Z 13006KT 23/17 A3009 RMK A01 T02290165  RH  067%=      5-min Rain = 0
KLO1 201301Z 13005KT 23/17 A3009 RMK A01 T02300166  RH  067%=      5-min Rain = 0
KLO1 201302Z 13005KT 23/17 A3009 RMK A01 T02310166  RH  067%=      5-min Rain = 0
KLO1 201303Z 13005KT 23/17 A3009 RMK A01 T02310167  RH  067%=      5-min Rain = 0
KLO1 201304Z 13005KT 23/17 A3009 RMK A01 T02320167  RH  067%=      5-min Rain = 0
KLO1 201305Z 13005KT 23/17 A3009 RMK A01 T02330168  RH  067%=      5-min Rain = 0
KLO1 201306Z 14005KT 23/17 A3009 RMK A01 T02340169  RH  067%=      5-min Rain = 0
KLO1 201307Z 13005KT 23/17 A3009 RMK A01 T02340169  RH  067%=      5-min Rain = 0
KLO1 201308Z 14006KT 24/17 A3009 RMK A01 T02350170  RH  067%=      5-min Rain = 0
KLO1 201309Z 14005KT 24/17 A3009 RMK A01 T02350171  RH  067%=      5-min Rain = 0
KLO1 201310Z 14005KT 24/17 A3009 RMK A01 T02360171  RH  067%=      5-min Rain = 0
KLO1 201311Z 14005KT 24/17 A3009 RMK A01 T02370172  RH  067%=      5-min Rain = 0
KLO1 201312Z 14005KT 24/17 A3009 RMK A01 T02380173  RH  067%=      5-min Rain = 0
KLO1 201313Z 14005KT 24/17 A3009 RMK A01 T02390173  RH  067%=      5-min Rain = 0
KLO1 201314Z 14005KT 24/17 A3009 RMK A01 T02400174  RH  067%=      5-min Rain = 0
KLO1 201315Z 14006KT 24/18 A3009 RMK A01 T02410175  RH  067%=      5-min Rain = 0
KLO1 201316Z 14005KT 24/18 A3009 RMK A01 T02420176  RH  067%=      5-min Rain = 0
KLO1 201317Z 13006KT 24/18 A3009 RMK A01 T02430176  RH  066%=      5-min Rain = 0
KLO1 201318Z 14006KT 24/18 A3009 RMK A01 T02430177  RH  066%=      5-min Rain = 0
KLO1 201319Z 14005KT 24/18 A3009 RMK A01 T02440177  RH  066%=      5-min Rain = 0
KLO1 201320Z 13005KT 25/18 A3009 RMK A01 T02450178  RH  066%=      5-min Rain = 0
KLO1 201321Z 13004KT 25/18 A3009 RMK A01 T02460178  RH  066%=      5-min Rain = 0
KLO1 201322Z 13005KT 25/18 A3009 RMK A01 T02460179  RH  066%=      5-min Rain = 0
KLO1 201323Z 13005KT 25/18 A3009 RMK A01 T02470180  RH  066%=      5-min Rain = 0
KLO1 201324Z 14004KT 25/18 A3009 RMK A01 T02470181  RH  066%=      5-min Rain = 0
KLO1 201325Z 14003KT 25/18 A3009 RMK A01 T02480181  RH  067%=      5-min Rain = 0
KLO1 201326Z 14003KT 25/18 A3009 RMK A01 T02490182  RH  066%=      5-min Rain = 0
KLO1 201327Z 15004KT 25/18 A3009 RMK A01 T02500183  RH  066%=      5-min Rain = 0
KLO1 201328Z 15004KT 25/18 A3009 RMK A01 T02510184  RH  066%=      5-min Rain = 0
KLO1 201329Z 15005KT 25/19 A3009 RMK A01 T02520185  RH  066%=      5-min Rain = 0
KLO1 201330Z 16006KT 25/19 A3009 RMK A01 T02530186  RH  066%=      5-min Rain = 0
KLO1 201331Z 16007KT 25/19 A3009 RMK A01 T02540187  RH  066%=      5-min Rain = 0
KLO1 201332Z 16007KT 26/19 A3009 RMK A01 T02550188  RH  066%=      5-min Rain = 0
KLO1 201333Z 16006KT 26/19 A3009 RMK A01 T02560188  RH  066%=      5-min Rain = 0
KLO1 201334Z 16007KT 26/19 A3009 RMK A01 T02560189  RH  066%=      5-min Rain = 0
KLO1 201335Z 16006KT 26/19 A3009 RMK A01 T02570189  RH  066%=      5-min Rain = 0
KLO1 201336Z 16006KT 26/19 A3009 RMK A01 T02580190  RH  066%=      5-min Rain = 0
KLO1 201337Z 16006KT 26/19 A3009 RMK A01 T02580190  RH  066%=      5-min Rain = 0
KLO1 201338Z 16005KT 26/19 A3009 RMK A01 T02590191  RH  066%=      5-min Rain = 0
KLO1 201339Z 17006KT 26/19 A3009 RMK A01 T02600192  RH  066%=      5-min Rain = 0
KLO1 201340Z 15006KT 26/19 A3009 RMK A01 T02610193  RH  066%=      5-min Rain = 0
KLO1 201341Z 17007KT 26/19 A3009 RMK A01 T02620193  RH  066%=      5-min Rain = 0
KLO1 201342Z 16008KT 26/19 A3009 RMK A01 T02620194  RH  066%=      5-min Rain = 0
KLO1 201343Z 16008KT 26/19 A3009 RMK A01 T02620193  RH  066%=      5-min Rain = 0
KLO1 201344Z 16006KT 26/19 A3009 RMK A01 T02620194  RH  066%=      5-min Rain = 0
KLO1 201345Z 17007KT 26/19 A3009 RMK A01 T02630194  RH  066%=      5-min Rain = 0
KLO1 201346Z 17007KT 26/20 A3009 RMK A01 T02640195  RH  066%=      5-min Rain = 0
KLO1 201347Z 17007KT 26/20 A3009 RMK A01 T02640195  RH  066%=      5-min Rain = 0
KLO1 201348Z 17008KT 27/20 A3009 RMK A01 T02650196  RH  066%=      5-min Rain = 0
KLO1 201349Z 18007KT 27/20 A3009 RMK A01 T02660196  RH  066%=      5-min Rain = 0
KLO1 201350Z 17008KT 27/20 A3009 RMK A01 T02660196  RH  065%=      5-min Rain = 0
KLO1 201351Z 19007KT 27/20 A3009 RMK A01 T02660197  RH  066%=      5-min Rain = 0
KLO1 201352Z 18007KT 27/20 A3009 RMK A01 T02670197  RH  066%=      5-min Rain = 0
KLO1 201353Z 18008KT 27/20 A3009 RMK A01 T02660197  RH  066%=      5-min Rain = 0
KLO1 201354Z 18007KT 27/20 A3009 RMK A01 T02670198  RH  066%=      5-min Rain = 0
KLO1 201355Z 17009KT 27/20 A3009 RMK A01 T02670198  RH  066%=      5-min Rain = 0
KLO1 201356Z 18010KT 27/20 A3009 RMK A01 T02680198  RH  065%=      5-min Rain = 0
KLO1 201357Z 18011KT 27/20 A3009 RMK A01 T02690198  RH  065%=      5-min Rain = 0
KLO1 201358Z 18007KT 27/20 A3009 RMK A01 T02690199  RH  066%=      5-min Rain = 0
KLO1 201359Z 18009KT 27/20 A3009 RMK A01 T02690199  RH  066%=      5-min Rain = 0
KLO1 201400Z 19010KT 27/20 A3009 RMK A01 T02690200  RH  066%=      5-min Rain = 0
KLO1 201401Z 18009KT 27/20 A3009 RMK A01 T02700201  RH  066%=      5-min Rain = 0
KLO1 201402Z 18012KT 27/20 A301 RMK A01 T02710201  RH  066%=      5-min Rain = 0
KLO1 201403Z 19010KT 27/20 A301 RMK A01 T02710201  RH  066%=      5-min Rain = 0
KLO1 201404Z 19011KT 27/20 A301 RMK A01 T02710201  RH  066%=      5-min Rain = 0
KLO1 201405Z 19010KT 27/20 A301 RMK A01 T02710201  RH  065%=      5-min Rain = 0
KLO1 201406Z 18010KT 27/20 A301 RMK A01 T02720202  RH  065%=      5-min Rain = 0
KLO1 201407Z 17009KT 27/20 A301 RMK A01 T02720202  RH  065%=      5-min Rain = 0
KLO1 201408Z 18007KT 27/20 A301 RMK A01 T02740204  RH  066%=      5-min Rain = 0
KLO1 201409Z 18010KT 28/20 A301 RMK A01 T02760203  RH  065%=      5-min Rain = 0
KLO1 201410Z 18010KT 28/20 A301 RMK A01 T02760202  RH  064%=      5-min Rain = 0
KLO1 201411Z 19010KT 28/20 A3009 RMK A01 T02760202  RH  064%=      5-min Rain = 0
KLO1 201412Z 18009KT 28/20 A3009 RMK A01 T02760202  RH  064%=      5-min Rain = 0
KLO1 201413Z 18011KT 28/20 A3009 RMK A01 T02750203  RH  064%=      5-min Rain = 0
KLO1 201414Z 18011KT 28/20 A3009 RMK A01 T02760201  RH  064%=      5-min Rain = 0
KLO1 201415Z 18009KT 28/20 A3009 RMK A01 T02760202  RH  064%=      5-min Rain = 0
KLO1 201416Z 18012KT 28/20 A3009 RMK A01 T02770202  RH  064%=      5-min Rain = 0
KLO1 201417Z 18011KT 28/20 A3009 RMK A01 T02770202  RH  064%=      5-min Rain = 0
KLO1 201418Z 18010KT 28/20 A3009 RMK A01 T02770202  RH  064%=      5-min Rain = 0
KLO1 201419Z 19010KT 28/20 A3009 RMK A01 T02770202  RH  064%=      5-min Rain = 0
KLO1 201420Z 18010KT 28/20 A3009 RMK A01 T02770202  RH  064%=      5-min Rain = 0
KLO1 201421Z 18010KT 28/20 A3009 RMK A01 T02780203  RH  064%=      5-min Rain = 0
KLO1 201422Z 18011KT 28/20 A3009 RMK A01 T02780204  RH  064%=      5-min Rain = 0
KLO1 201423Z 18012KT 28/20 A3009 RMK A01 T02790203  RH  063%=      5-min Rain = 0
KLO1 201424Z 18012KT 28/20 A3009 RMK A01 T02800202  RH  063%=      5-min Rain = 0
KLO1 201425Z 19011KT 28/20 A3009 RMK A01 T02800203  RH  063%=      5-min Rain = 0
KLO1 201426Z 19011KT 28/20 A3009 RMK A01 T02800203  RH  063%=      5-min Rain = 0
KLO1 201427Z 19012KT 28/20 A3009 RMK A01 T02800202  RH  063%=      5-min Rain = 0
KLO1 201428Z 18011KT 28/20 A3009 RMK A01 T02810202  RH  062%=      5-min Rain = 0
KLO1 201429Z 18010KT 28/20 A3009 RMK A01 T02810203  RH  063%=      5-min Rain = 0
KLO1 201430Z 19011KT 28/20 A3009 RMK A01 T02820204  RH  063%=      5-min Rain = 0
KLO1 201431Z 19009KT 28/20 A3009 RMK A01 T02820204  RH  062%=      5-min Rain = 0
KLO1 201432Z 19009KT 28/21 A3009 RMK A01 T02830205  RH  063%=      5-min Rain = 0
KLO1 201433Z 19008KT 28/20 A3009 RMK A01 T02840204  RH  062%=      5-min Rain = 0
KLO1 201434Z 19007KT 29/21 A3009 RMK A01 T02850206  RH  062%=      5-min Rain = 0
KLO1 201435Z 18009KT 29/21 A3009 RMK A01 T02860206  RH  062%=      5-min Rain = 0
KLO1 201436Z 18010KT 29/20 A3009 RMK A01 T02860204  RH  061%=      5-min Rain = 0
KLO1 201437Z 19012KT 29/20 A3009 RMK A01 T02860203  RH  061%=      5-min Rain = 0
KLO1 201438Z 19011KT 29/20 A3009 RMK A01 T02860202  RH  061%=      5-min Rain = 0
KLO1 201439Z 18012KT 29/20 A3009 RMK A01 T02850202  RH  061%=      5-min Rain = 0
KLO1 201440Z 19012KT 29/20 A3009 RMK A01 T02850201  RH  061%=      5-min Rain = 0
KLO1 201441Z 18011KT 29/20 A3009 RMK A01 T02850202  RH  061%=      5-min Rain = 0
KLO1 201442Z 18010KT 29/20 A3009 RMK A01 T02850201  RH  060%=      5-min Rain = 0
KLO1 201443Z 18010KT 29/20 A3009 RMK A01 T02860203  RH  061%=      5-min Rain = 0
KLO1 201444Z 19012KT 29/20 A3009 RMK A01 T02870203  RH  060%=      5-min Rain = 0
KLO1 201445Z 19012KT 29/20 A3009 RMK A01 T02870201  RH  060%=      5-min Rain = 0
KLO1 201446Z 19010KT 29/20 A3009 RMK A01 T02870201  RH  060%=      5-min Rain = 0
KLO1 201447Z 18011KT 29/20 A3009 RMK A01 T02870202  RH  060%=      5-min Rain = 0
KLO1 201448Z 19011KT 29/20 A3009 RMK A01 T02880202  RH  060%=      5-min Rain = 0
KLO1 201449Z 18009KT 29/20 A3009 RMK A01 T02880203  RH  060%=      5-min Rain = 0
KLO1 201450Z 18010KT 29/20 A3009 RMK A01 T02880203  RH  060%=      5-min Rain = 0
KLO1 201451Z 17009KT 29/20 A3009 RMK A01 T02890202  RH  059%=      5-min Rain = 0
KLO1 201452Z 18009KT 29/20 A3009 RMK A01 T02890202  RH  059%=      5-min Rain = 0
KLO1 201453Z 19010KT 29/20 A3009 RMK A01 T02900202  RH  059%=      5-min Rain = 0
KLO1 201454Z 18007KT 29/20 A3009 RMK A01 T02900203  RH  059%=      5-min Rain = 0
KLO1 201455Z 19010KT 29/20 A3009 RMK A01 T02910204  RH  059%=      5-min Rain = 0
KLO1 201456Z 19011KT 29/20 A3009 RMK A01 T02920202  RH  058%=      5-min Rain = 0
KLO1 201457Z 18011KT 29/20 A3009 RMK A01 T02910200  RH  058%=      5-min Rain = 0
KLO1 201458Z 19009KT 29/20 A3009 RMK A01 T02910200  RH  058%=      5-min Rain = 0
KLO1 201459Z 19008KT 29/20 A3009 RMK A01 T02910201  RH  058%=      5-min Rain = 0
KLO1 201500Z 19010KT 29/20 A3009 RMK A01 T02910201  RH  058%=      5-min Rain = 0
KLO1 201501Z 20010KT 29/20 A3009 RMK A01 T02920201  RH  058%=      5-min Rain = 0
KLO1 201502Z 20013KT 29/20 A3009 RMK A01 T02930199  RH  057%=      5-min Rain = 0
KLO1 201503Z 20011KT 29/20 A3009 RMK A01 T02930198  RH  057%=      5-min Rain = 0
KLO1 201504Z 20012KT 29/20 A3009 RMK A01 T02930198  RH  057%=      5-min Rain = 0
KLO1 201505Z 19010KT 29/20 A3009 RMK A01 T02930198  RH  057%=      5-min Rain = 0
KLO1 201506Z 19011KT 29/20 A3009 RMK A01 T02920200  RH  057%=      5-min Rain = 0
KLO1 201507Z 19010KT 29/20 A3009 RMK A01 T02930199  RH  057%=      5-min Rain = 0
KLO1 201508Z 18010KT 29/20 A3009 RMK A01 T02930199  RH  057%=      5-min Rain = 0
KLO1 201509Z 19011KT 29/20 A3009 RMK A01 T02940199  RH  057%=      5-min Rain = 0
KLO1 201510Z 19011KT 29/20 A3009 RMK A01 T02940199  RH  057%=      5-min Rain = 0
KLO1 201511Z 19010KT 30/20 A3009 RMK A01 T02950199  RH  057%=      5-min Rain = 0
KLO1 201512Z 19011KT 29/20 A3009 RMK A01 T02940198  RH  056%=      5-min Rain = 0
KLO1 201513Z 18010KT 29/20 A3009 RMK A01 T02940201  RH  057%=      5-min Rain = 0
KLO1 201514Z 18012KT 30/20 A3009 RMK A01 T02960200  RH  056%=      5-min Rain = 0
KLO1 201515Z 18009KT 30/20 A3009 RMK A01 T02970200  RH  056%=      5-min Rain = 0
KLO1 201516Z 20010KT 30/20 A3009 RMK A01 T02970201  RH  056%=      5-min Rain = 0
KLO1 201517Z 19010KT 30/20 A3009 RMK A01 T02970200  RH  056%=      5-min Rain = 0
KLO1 201518Z 18011KT 30/20 A3009 RMK A01 T02980200  RH  056%=      5-min Rain = 0
KLO1 201519Z 17012KT 30/20 A3009 RMK A01 T02980199  RH  055%=      5-min Rain = 0
KLO1 201520Z 18011KT 30/20 A3009 RMK A01 T02980199  RH  055%=      5-min Rain = 0
KLO1 201521Z 19010KT 30/20 A3009 RMK A01 T02980199  RH  056%=      5-min Rain = 0
KLO1 201522Z 19009KT 30/20 A3009 RMK A01 T02990201  RH  056%=      5-min Rain = 0
KLO1 201523Z 19008KT 30/20 A3009 RMK A01 T03000200  RH  055%=      5-min Rain = 0
KLO1 201524Z 18010KT 30/20 A3009 RMK A01 T03010202  RH  055%=      5-min Rain = 0
KLO1 201525Z 18012KT 30/20 A3009 RMK A01 T03000199  RH  055%=      5-min Rain = 0
KLO1 201526Z 18010KT 30/20 A3009 RMK A01 T03000200  RH  055%=      5-min Rain = 0
KLO1 201527Z 18011KT 30/20 A3009 RMK A01 T03020202  RH  055%=      5-min Rain = 0
KLO1 201528Z 17011KT 30/20 A3009 RMK A01 T03030199  RH  054%=      5-min Rain = 0
KLO1 201529Z 17010KT 30/20 A301 RMK A01 T03020199  RH  054%=      5-min Rain = 0
KLO1 201530Z 18009KT 30/20 A301 RMK A01 T03020199  RH  054%=      5-min Rain = 0
KLO1 201531Z 19010KT 30/20 A301 RMK A01 T03020201  RH  055%=      5-min Rain = 0
KLO1 201532Z 19008KT 30/20 A301 RMK A01 T03020202  RH  055%=      5-min Rain = 0
KLO1 201533Z 18008KT 30/20 A301 RMK A01 T03040201  RH  054%=      5-min Rain = 0
KLO1 201534Z 18011KT 31/20 A301 RMK A01 T03050199  RH  053%=      5-min Rain = 0
KLO1 201535Z 18012KT 31/20 A301 RMK A01 T03050199  RH  053%=      5-min Rain = 0
KLO1 201536Z 18010KT 30/20 A301 RMK A01 T03040199  RH  053%=      5-min Rain = 0
KLO1 201537Z 18011KT 31/20 A301 RMK A01 T03050199  RH  053%=      5-min Rain = 0
KLO1 201538Z 18010KT 31/20 A301 RMK A01 T03050199  RH  053%=      5-min Rain = 0
KLO1 201539Z 19011KT 31/20 A301 RMK A01 T03050200  RH  053%=      5-min Rain = 0
KLO1 201540Z 19009KT 31/20 A301 RMK A01 T03050199  RH  053%=      5-min Rain = 0
KLO1 201541Z 18010KT 31/20 A301 RMK A01 T03060199  RH  053%=      5-min Rain = 0
KLO1 201542Z 18011KT 31/20 A301 RMK A01 T03070199  RH  053%=      5-min Rain = 0
KLO1 201543Z 18011KT 31/20 A301 RMK A01 T03060197  RH  052%=      5-min Rain = 0
KLO1 201544Z 18011KT 31/20 A301 RMK A01 T03060197  RH  052%=      5-min Rain = 0
KLO1 201545Z 18010KT 31/20 A301 RMK A01 T03050197  RH  053%=      5-min Rain = 0
KLO1 201546Z 18008KT 30/20 A301 RMK A01 T03030198  RH  053%=      5-min Rain = 0
KLO1 201547Z 18008KT 30/20 A301 RMK A01 T03040199  RH  053%=      5-min Rain = 0
KLO1 201548Z 18011KT 31/20 A301 RMK A01 T03050198  RH  053%=      5-min Rain = 0
KLO1 201549Z 18011KT 31/20 A301 RMK A01 T03060198  RH  053%=      5-min Rain = 0
KLO1 201550Z 18009KT 31/20 A301 RMK A01 T03060198  RH  052%=      5-min Rain = 0
KLO1 201551Z 19008KT 31/20 A301 RMK A01 T03070199  RH  053%=      5-min Rain = 0
KLO1 201552Z 20011KT 31/20 A301 RMK A01 T03070197  RH  052%=      5-min Rain = 0
KLO1 201553Z 18011KT 31/20 A301 RMK A01 T03080197  RH  052%=      5-min Rain = 0
KLO1 201554Z 18009KT 31/20 A301 RMK A01 T03080195  RH  051%=      5-min Rain = 0
KLO1 201555Z 18010KT 31/20 A301 RMK A01 T03090199  RH  052%=      5-min Rain = 0
KLO1 201556Z 19008KT 31/20 A301 RMK A01 T03120202  RH  052%=      5-min Rain = 0
KLO1 201557Z 19013KT 31/20 A301 RMK A01 T03140197  RH  050%=      5-min Rain = 0
KLO1 201558Z 18011KT 31/20 A301 RMK A01 T03120196  RH  050%=      5-min Rain = 0
KLO1 201559Z 18007KT 31/20 A301 RMK A01 T03100196  RH  051%=      5-min Rain = 0
KLO1 201600Z 18009KT 31/20 A301 RMK A01 T03090197  RH  051%=      5-min Rain = 0
KLO1 201601Z 17009KT 31/20 A301 RMK A01 T03090197  RH  051%=      5-min Rain = 0
KLO1 201602Z 17009KT 31/20 A301 RMK A01 T03110198  RH  051%=      5-min Rain = 0
KLO1 201603Z 17008KT 31/20 A301 RMK A01 T03140199  RH  050%=      5-min Rain = 0
KLO1 201604Z 18008KT 32/20 A301 RMK A01 T03160197  RH  049%=      5-min Rain = 0
KLO1 201605Z 19011KT 31/20 A301 RMK A01 T03130196  RH  050%=      5-min Rain = 0
KLO1 201606Z 18012KT 31/20 A301 RMK A01 T03130195  RH  049%=      5-min Rain = 0
KLO1 201607Z 18011KT 31/19 A301 RMK A01 T03130194  RH  049%=      5-min Rain = 0
KLO1 201608Z 19011KT 31/19 A301 RMK A01 T03130193  RH  049%=      5-min Rain = 0
KLO1 201609Z 18011KT 31/19 A301 RMK A01 T03130192  RH  049%=      5-min Rain = 0
KLO1 201610Z 19010KT 31/19 A301 RMK A01 T03130192  RH  049%=      5-min Rain = 0
KLO1 201611Z 19010KT 31/19 A301 RMK A01 T03120192  RH  049%=      5-min Rain = 0
KLO1 201612Z 18009KT 31/19 A301 RMK A01 T03120192  RH  049%=      5-min Rain = 0
KLO1 201613Z 18007KT 31/19 A301 RMK A01 T03140193  RH  048%=      5-min Rain = 0
KLO1 201614Z 18008KT 32/19 A301 RMK A01 T03150192  RH  048%=      5-min Rain = 0
KLO1 201615Z 18009KT 31/20 A301 RMK A01 T03140196  RH  050%=      5-min Rain = 0
KLO1 201616Z 18008KT 32/20 A301 RMK A01 T03170195  RH  049%=      5-min Rain = 0
KLO1 201617Z 18009KT 32/19 A301 RMK A01 T03170193  RH  048%=      5-min Rain = 0
KLO1 201618Z 19010KT 32/20 A301 RMK A01 T03170195  RH  048%=      5-min Rain = 0
KLO1 201619Z 20011KT 32/19 A301 RMK A01 T03190193  RH  047%=      5-min Rain = 0
KLO1 201620Z 18010KT 32/19 A301 RMK A01 T03190194  RH  048%=      5-min Rain = 0
KLO1 201621Z 18010KT 32/19 A301 RMK A01 T03200194  RH  047%=      5-min Rain = 0
KLO1 201622Z 19009KT 32/19 A301 RMK A01 T03200190  RH  046%=      5-min Rain = 0
KLO1 201623Z 19008KT 32/19 A301 RMK A01 T03190189  RH  046%=      5-min Rain = 0
KLO1 201624Z 19008KT 32/19 A301 RMK A01 T03190190  RH  047%=      5-min Rain = 0
KLO1 201625Z 17010KT 32/19 A301 RMK A01 T03210191  RH  046%=      5-min Rain = 0
KLO1 201626Z 19010KT 32/19 A301 RMK A01 T03220192  RH  046%=      5-min Rain = 0
KLO1 201627Z 20009KT 32/19 A301 RMK A01 T03220190  RH  046%=      5-min Rain = 0
KLO1 201628Z 19007KT 32/19 A301 RMK A01 T03220190  RH  046%=      5-min Rain = 0
KLO1 201629Z 18006KT 32/19 A301 RMK A01 T03210191  RH  046%=      5-min Rain = 0
KLO1 201630Z 18011KT 32/19 A301 RMK A01 T03210192  RH  046%=      5-min Rain = 0
KLO1 201631Z 19007KT 32/19 A301 RMK A01 T03220185  RH  044%=      5-min Rain = 0
KLO1 201632Z 21008KT 32/18 A301 RMK A01 T03220183  RH  044%=      5-min Rain = 0
KLO1 201633Z 20009KT 32/18 A301 RMK A01 T03220183  RH  044%=      5-min Rain = 0
KLO1 201634Z 20009KT 32/19 A301 RMK A01 T03240186  RH  044%=      5-min Rain = 0
KLO1 201635Z 20008KT 33/19 A301 RMK A01 T03250187  RH  044%=      5-min Rain = 0
KLO1 201636Z 21006KT 32/19 A301 RMK A01 T03230187  RH  044%=      5-min Rain = 0
KLO1 201637Z 22008KT 32/19 A301 RMK A01 T03230187  RH  044%=      5-min Rain = 0
KLO1 201638Z 21007KT 32/19 A301 RMK A01 T03240189  RH  045%=      5-min Rain = 0
KLO1 201639Z 20006KT 32/19 A301 RMK A01 T03230189  RH  045%=      5-min Rain = 0
KLO1 201640Z 20007KT 32/19 A301 RMK A01 T03230191  RH  046%=      5-min Rain = 0
KLO1 201641Z 17009KT 33/20 A301 RMK A01 T03250195  RH  046%=      5-min Rain = 0
KLO1 201642Z 17008KT 33/20 A301 RMK A01 T03290196  RH  046%=      5-min Rain = 0
KLO1 201643Z 17007KT 33/19 A301 RMK A01 T03300191  RH  044%=      5-min Rain = 0
KLO1 201644Z 20009KT 33/19 A301 RMK A01 T03290190  RH  044%=      5-min Rain = 0
KLO1 201645Z 20009KT 33/19 A301 RMK A01 T03280190  RH  044%=      5-min Rain = 0
KLO1 201646Z 19007KT 33/19 A301 RMK A01 T03280190  RH  044%=      5-min Rain = 0
KLO1 201647Z 20005KT 33/19 A301 RMK A01 T03280191  RH  044%=      5-min Rain = 0
KLO1 201648Z 17005KT 33/19 A301 RMK A01 T03280191  RH  044%=      5-min Rain = 0
KLO1 201649Z 17006KT 33/19 A301 RMK A01 T03280191  RH  044%=      5-min Rain = 0
KLO1 201650Z 17005KT 33/19 A301 RMK A01 T03280188  RH  044%=      5-min Rain = 0
KLO1 201651Z 14006KT 33/19 A301 RMK A01 T03280187  RH  043%=      5-min Rain = 0
KLO1 201652Z 14009KT 33/18 A301 RMK A01 T03290181  RH  041%=      5-min Rain = 0
KLO1 201653Z 14007KT 33/18 A301 RMK A01 T03300180  RH  041%=      5-min Rain = 0
KLO1 201654Z 14007KT 33/18 A301 RMK A01 T03300182  RH  042%=      5-min Rain = 0
KLO1 201655Z 13006KT 33/18 A301 RMK A01 T03310182  RH  041%=      5-min Rain = 0
KLO1 201656Z 16009KT 33/18 A301 RMK A01 T03340184  RH  041%=      5-min Rain = 0
KLO1 201657Z 13009KT 34/19 A301 RMK A01 T03350185  RH  041%=      5-min Rain = 0
KLO1 201658Z 15008KT 33/18 A301 RMK A01 T03340184  RH  041%=      5-min Rain = 0
KLO1 201659Z 15008KT 33/18 A301 RMK A01 T03320184  RH  041%=      5-min Rain = 0
KLO1 201700Z 16007KT 33/18 A301 RMK A01 T03320184  RH  042%=      5-min Rain = 0
KLO1 201701Z 15006KT 33/18 A301 RMK A01 T03320180  RH  041%=      5-min Rain = 0
KLO1 201702Z 18008KT 33/18 A301 RMK A01 T03310182  RH  041%=      5-min Rain = 0
KLO1 201703Z 16010KT 33/18 A301 RMK A01 T03310181  RH  041%=      5-min Rain = 0
KLO1 201704Z 16008KT 33/18 A301 RMK A01 T03320182  RH  041%=      5-min Rain = 0
KLO1 201705Z 17009KT 33/18 A301 RMK A01 T03320181  RH  041%=      5-min Rain = 0
KLO1 201706Z 18010KT 33/18 A301 RMK A01 T03330182  RH  041%=      5-min Rain = 0
KLO1 201707Z 18007KT 33/18 A301 RMK A01 T03330181  RH  040%=      5-min Rain = 0
KLO1 201708Z 19006KT 33/18 A3009 RMK A01 T03330183  RH  041%=      5-min Rain = 0
KLO1 201709Z 19005KT 34/18 A3009 RMK A01 T03350180  RH  040%=      5-min Rain = 0
KLO1 201710Z 17005KT 34/18 A3009 RMK A01 T03350180  RH  040%=      5-min Rain = 0
KLO1 201711Z 15006KT 34/18 A3009 RMK A01 T03350182  RH  040%=      5-min Rain = 0
KLO1 201712Z 13011KT 34/18 A3009 RMK A01 T03370179  RH  039%=      5-min Rain = 0
KLO1 201713Z 12010KT 34/18 A301 RMK A01 T03370177  RH  039%=      5-min Rain = 0
KLO1 201714Z 11007KT 34/18 A3009 RMK A01 T03360178  RH  039%=      5-min Rain = 0
KLO1 201715Z 12009KT 34/18 A301 RMK A01 T03360175  RH  038%=      5-min Rain = 0
KLO1 201716Z 12005KT 34/18 A3009 RMK A01 T03350175  RH  039%=      5-min Rain = 0
KLO1 201717Z 14013KT 33/17 A301 RMK A01 T03340174  RH  038%=      5-min Rain = 0
KLO1 201718Z 15010KT 34/17 A301 RMK A01 T03360171  RH  037%=      5-min Rain = 0
KLO1 201719Z 14009KT 34/17 A301 RMK A01 T03350172  RH  038%=      5-min Rain = 0
KLO1 201720Z 13008KT 34/18 A301 RMK A01 T03350176  RH  039%=      5-min Rain = 0
KLO1 201721Z 15007KT 33/18 A301 RMK A01 T03340180  RH  040%=      5-min Rain = 0
KLO1 201722Z 14006KT 33/18 A301 RMK A01 T03340183  RH  041%=      5-min Rain = 0
KLO1 201723Z 16005KT 34/19 A301 RMK A01 T03360185  RH  041%=      5-min Rain = 0
KLO1 201724Z 18005KT 34/18 A3009 RMK A01 T03370184  RH  040%=      5-min Rain = 0
KLO1 201725Z 16005KT 34/18 A3009 RMK A01 T03370181  RH  040%=      5-min Rain = 0
KLO1 201726Z 11005KT 34/18 A3009 RMK A01 T03370181  RH  040%=      5-min Rain = 0
KLO1 201727Z 13007KT 34/18 A3009 RMK A01 T03360180  RH  040%=      5-min Rain = 0
KLO1 201728Z 14007KT 34/18 A3009 RMK A01 T03360178  RH  039%=      5-min Rain = 0
KLO1 201729Z 16006KT 34/18 A3009 RMK A01 T03380177  RH  039%=      5-min Rain = 0
KLO1 201730Z 18008KT 34/18 A3009 RMK A01 T03410180  RH  039%=      5-min Rain = 0
KLO1 201731Z 16008KT 34/18 A3009 RMK A01 T03420179  RH  038%=      5-min Rain = 0
KLO1 201732Z 15013KT 34/18 A3009 RMK A01 T03420178  RH  038%=      5-min Rain = 0
KLO1 201733Z 14013KT 34/18 A3009 RMK A01 T03410175  RH  037%=      5-min Rain = 0
KLO1 201734Z 14012KT 34/18 A301 RMK A01 T03390175  RH  038%=      5-min Rain = 0
KLO1 201735Z 13011KT 34/17 A301 RMK A01 T03390174  RH  038%=      5-min Rain = 0
KLO1 201736Z 14011KT 34/18 A301 RMK A01 T03390175  RH  038%=      5-min Rain = 0
KLO1 201737Z 16008KT 34/17 A301 RMK A01 T03390172  RH  037%=      5-min Rain = 0
KLO1 201738Z 14006KT 34/17 A3009 RMK A01 T03380172  RH  037%=      5-min Rain = 0
KLO1 201739Z 15009KT 34/17 A3009 RMK A01 T03400168  RH  036%=      5-min Rain = 0
KLO1 201740Z 14005KT 34/16 A3009 RMK A01 T03400159  RH  034%=      5-min Rain = 0
KLO1 201741Z 15008KT 34/17 A3009 RMK A01 T03390165  RH  035%=      5-min Rain = 0
KLO1 201742Z 17008KT 34/17 A3009 RMK A01 T03390171  RH  037%=      5-min Rain = 0
KLO1 201743Z 15005KT 34/17 A3009 RMK A01 T03390172  RH  037%=      5-min Rain = 0
KLO1 201744Z 11007KT 34/17 A3009 RMK A01 T03410174  RH  037%=      5-min Rain = 0
KLO1 201745Z 13004KT 34/17 A3009 RMK A01 T03400173  RH  037%=      5-min Rain = 0
KLO1 201746Z 18006KT 34/18 A3009 RMK A01 T03390176  RH  038%=      5-min Rain = 0
KLO1 201747Z 16009KT 34/18 A3009 RMK A01 T03400177  RH  038%=      5-min Rain = 0
KLO1 201748Z 14009KT 34/18 A3009 RMK A01 T03410175  RH  037%=      5-min Rain = 0
KLO1 201749Z 13008KT 34/18 A3009 RMK A01 T03420175  RH  037%=      5-min Rain = 0
KLO1 201750Z 14007KT 34/17 A3009 RMK A01 T03410174  RH  037%=      5-min Rain = 0
KLO1 201751Z 17007KT 34/18 A3009 RMK A01 T03410177  RH  038%=      5-min Rain = 0
KLO1 201752Z 14010KT 34/18 A3009 RMK A01 T03400180  RH  039%=      5-min Rain = 0
KLO1 201753Z 15006KT 34/18 A3009 RMK A01 T03430179  RH  038%=      5-min Rain = 0
KLO1 201754Z 19008KT 34/18 A3009 RMK A01 T03430179  RH  038%=      5-min Rain = 0
KLO1 201755Z 20007KT 34/18 A3009 RMK A01 T03430176  RH  037%=      5-min Rain = 0
KLO1 201756Z 18010KT 34/18 A3009 RMK A01 T03410175  RH  037%=      5-min Rain = 0
KLO1 201757Z 15010KT 34/18 A3009 RMK A01 T03420178  RH  038%=      5-min Rain = 0
KLO1 201758Z 14008KT 34/18 A3009 RMK A01 T03440178  RH  037%=      5-min Rain = 0
KLO1 201759Z 13009KT 35/18 A3009 RMK A01 T03450179  RH  037%=      5-min Rain = 0
KLO1 201800Z 12009KT 35/18 A3009 RMK A01 T03480178  RH  036%=      5-min Rain = 0
KLO1 201801Z 11011KT 35/18 A3009 RMK A01 T03480176  RH  036%=      5-min Rain = 0
KLO1 201802Z 13009KT 35/18 A3009 RMK A01 T03460176  RH  036%=      5-min Rain = 0
KLO1 201803Z 14010KT 35/18 A3009 RMK A01 T03460178  RH  037%=      5-min Rain = 0
KLO1 201804Z 14009KT 35/18 A3009 RMK A01 T03460179  RH  037%=      5-min Rain = 0
KLO1 201805Z 14008KT 35/18 A3009 RMK A01 T03460179  RH  037%=      5-min Rain = 0
KLO1 201806Z 15009KT 35/18 A3009 RMK A01 T03460180  RH  037%=      5-min Rain = 0
KLO1 201807Z 16010KT 35/18 A3009 RMK A01 T03450177  RH  037%=      5-min Rain = 0
KLO1 201808Z 17011KT 34/18 A3009 RMK A01 T03440176  RH  037%=      5-min Rain = 0
KLO1 201809Z 18006G11KT 34/18 A3009 RMK A01 T03420175  RH  037%=      5-min Rain = 0
KLO1 201810Z 16005KT 34/18 A3009 RMK A01 T03410176  RH  038%=      5-min Rain = 0
KLO1 201811Z 15007KT 34/18 A3009 RMK A01 T03430179  RH  038%=      5-min Rain = 0
KLO1 201812Z 13008KT 35/17 A3009 RMK A01 T03460174  RH  036%=      5-min Rain = 0
KLO1 201813Z 13011KT 35/17 A3009 RMK A01 T03480169  RH  034%=      5-min Rain = 0
KLO1 201814Z 13012KT 35/17 A3009 RMK A01 T03480167  RH  034%=      5-min Rain = 0
KLO1 201815Z 12010KT 35/17 A3009 RMK A01 T03480165  RH  034%=      5-min Rain = 0
KLO1 201816Z 15009KT 35/17 A3009 RMK A01 T03480165  RH  034%=      5-min Rain = 0
KLO1 201817Z 14007KT 35/16 A3009 RMK A01 T03480164  RH  034%=      5-min Rain = 0
KLO1 201818Z 15010KT 35/17 A3009 RMK A01 T03480167  RH  034%=      5-min Rain = 0
KLO1 201819Z 17006KT 35/17 A3009 RMK A01 T03480167  RH  034%=      5-min Rain = 0
KLO1 201820Z 16006KT 35/17 A3009 RMK A01 T03470166  RH  034%=      5-min Rain = 0
KLO1 201821Z 17005KT 35/16 A3008 RMK A01 T03460164  RH  034%=      5-min Rain = 0
KLO1 201822Z 16013KT 35/17 A3008 RMK A01 T03480167  RH  034%=      5-min Rain = 0
KLO1 201823Z 16008G15KT 35/16 A3009 RMK A01 T03490164  RH  033%=      5-min Rain = 0
KLO1 201824Z 16008KT 35/16 A3008 RMK A01 T03480164  RH  033%=      5-min Rain = 0
KLO1 201825Z 16012KT 35/17 A3008 RMK A01 T03490165  RH  034%=      5-min Rain = 0
KLO1 201826Z 17011KT 35/17 A3008 RMK A01 T03480165  RH  034%=      5-min Rain = 0
KLO1 201827Z 18009KT 35/17 A3008 RMK A01 T03480166  RH  034%=      5-min Rain = 0
KLO1 201828Z 17005KT 35/17 A3008 RMK A01 T03480167  RH  034%=      5-min Rain = 0
KLO1 201829Z 16005KT 35/17 A3008 RMK A01 T03500167  RH  034%=      5-min Rain = 0
KLO1 201830Z 15004KT 35/17 A3008 RMK A01 T03510167  RH  034%=      5-min Rain = 0
KLO1 201831Z 19006KT 35/17 A3008 RMK A01 T03510169  RH  034%=      5-min Rain = 0
KLO1 201832Z 20007G12KT 35/17 A3008 RMK A01 T03530168  RH  033%=      5-min Rain = 0
KLO1 201833Z 20009KT 35/17 A3008 RMK A01 T03530171  RH  034%=      5-min Rain = 0
KLO1 201834Z 19007G12KT 35/17 A3008 RMK A01 T03530169  RH  034%=      5-min Rain = 0
KLO1 201835Z 14003KT 35/17 A3008 RMK A01 T03480167  RH  034%=      5-min Rain = 0
KLO1 201836Z 15003KT 35/17 A3008 RMK A01 T03460168  RH  035%=      5-min Rain = 0
KLO1 201837Z 15004KT 35/17 A3008 RMK A01 T03480170  RH  035%=      5-min Rain = 0
KLO1 201838Z 21005KT 35/17 A3008 RMK A01 T03510171  RH  034%=      5-min Rain = 0
KLO1 201839Z 22005KT 35/17 A3008 RMK A01 T03530170  RH  034%=      5-min Rain = 0
KLO1 201840Z 11005G10KT 35/17 A3008 RMK A01 T03540171  RH  034%=      5-min Rain = 0
KLO1 201841Z 12008KT 36/16 A3008 RMK A01 T03550160  RH  031%=      5-min Rain = 0
KLO1 201842Z 12006KT 35/16 A3008 RMK A01 T03540157  RH  031%=      5-min Rain = 0
KLO1 201843Z 12006KT 35/16 A3008 RMK A01 T03530157  RH  031%=      5-min Rain = 0
KLO1 201844Z 12007KT 35/16 A3008 RMK A01 T03530159  RH  031%=      5-min Rain = 0
KLO1 201845Z 12012KT 36/16 A3008 RMK A01 T03550163  RH  032%=      5-min Rain = 0
KLO1 201846Z 11009KT 36/16 A3008 RMK A01 T03570161  RH  031%=      5-min Rain = 0
KLO1 201847Z 11006KT 36/16 A3008 RMK A01 T03560160  RH  031%=      5-min Rain = 0
KLO1 201848Z 15008KT 36/16 A3008 RMK A01 T03550161  RH  032%=      5-min Rain = 0
KLO1 201849Z 15007KT 35/16 A3008 RMK A01 T03540159  RH  031%=      5-min Rain = 0
KLO1 201850Z 16005KT 35/16 A3008 RMK A01 T03540160  RH  032%=      5-min Rain = 0
KLO1 201851Z 23002KT 35/16 A3008 RMK A01 T03530160  RH  032%=      5-min Rain = 0
KLO1 201852Z 14005KT 35/16 A3008 RMK A01 T03530160  RH  032%=      5-min Rain = 0
KLO1 201853Z 18010G15KT 36/16 A3008 RMK A01 T03580163  RH  032%=      5-min Rain = 0
KLO1 201854Z 17009KT 36/16 A3008 RMK A01 T03590162  RH  031%=      5-min Rain = 0
KLO1 201855Z 15008KT 36/16 A3008 RMK A01 T03590163  RH  031%=      5-min Rain = 0
KLO1 201856Z 14013KT 36/17 A3008 RMK A01 T03580166  RH  032%=      5-min Rain = 0
KLO1 201857Z 15013KT 36/17 A3007 RMK A01 T03580166  RH  032%=      5-min Rain = 0
KLO1 201858Z 14013KT 36/17 A3007 RMK A01 T03580166  RH  032%=      5-min Rain = 0
KLO1 201859Z 14010KT 36/17 A3008 RMK A01 T03600166  RH  032%=      5-min Rain = 0
KLO1 201900Z 14010KT 36/17 A3007 RMK A01 T03610166  RH  032%=      5-min Rain = 0
KLO1 201901Z 16007KT 36/16 A3007 RMK A01 T03590163  RH  031%=      5-min Rain = 0
KLO1 201902Z 16006G11KT 36/16 A3007 RMK A01 T03560163  RH  032%=      5-min Rain = 0
KLO1 201903Z 14008KT 36/16 A3007 RMK A01 T03560163  RH  032%=      5-min Rain = 0
KLO1 201904Z 15006KT 36/16 A3007 RMK A01 T03550162  RH  032%=      5-min Rain = 0
KLO1 201905Z 14004KT 35/16 A3007 RMK A01 T03540162  RH  032%=      5-min Rain = 0
KLO1 201906Z 17007KT 35/16 A3007 RMK A01 T03540162  RH  032%=      5-min Rain = 0
KLO1 201907Z 15006KT 35/16 A3007 RMK A01 T03540161  RH  032%=      5-min Rain = 0
KLO1 201908Z 16003KT 35/16 A3007 RMK A01 T03530159  RH  032%=      5-min Rain = 0
KLO1 201909Z 15007KT 35/16 A3007 RMK A01 T03530160  RH  032%=      5-min Rain = 0
KLO1 201910Z 13010KT 35/16 A3007 RMK A01 T03540160  RH  032%=      5-min Rain = 0
KLO1 201911Z 12011KT 36/16 A3007 RMK A01 T03590159  RH  031%=      5-min Rain = 0
KLO1 201912Z 15014KT 36/16 A3007 RMK A01 T03610161  RH  031%=      5-min Rain = 0
KLO1 201913Z 16010KT 36/16 A3007 RMK A01 T03630158  RH  030%=      5-min Rain = 0
KLO1 201914Z 15009KT 36/16 A3007 RMK A01 T03620158  RH  030%=      5-min Rain = 0
KLO1 201915Z 12010KT 36/16 A3007 RMK A01 T03610159  RH  030%=      5-min Rain = 0
KLO1 201916Z 11010KT 36/16 A3007 RMK A01 T03600158  RH  030%=      5-min Rain = 0
KLO1 201917Z 10008KT 36/16 A3007 RMK A01 T03580155  RH  030%=      5-min Rain = 0
KLO1 201918Z 12010KT 36/16 A3007 RMK A01 T03560155  RH  030%=      5-min Rain = 0
KLO1 201919Z 11010KT 36/16 A3007 RMK A01 T03570155  RH  030%=      5-min Rain = 0
KLO1 201920Z 09005KT 36/16 A3007 RMK A01 T03570156  RH  030%=      5-min Rain = 0
KLO1 201921Z 10007KT 36/15 A3007 RMK A01 T03570154  RH  030%=      5-min Rain = 0
KLO1 201922Z 11008KT 36/15 A3007 RMK A01 T03570149  RH  029%=      5-min Rain = 0
KLO1 201923Z 07002KT 36/15 A3007 RMK A01 T03560146  RH  029%=      5-min Rain = 0
KLO1 201924Z 11003KT 36/15 A3006 RMK A01 T03550148  RH  029%=      5-min Rain = 0
KLO1 201925Z 14008KT 36/15 A3007 RMK A01 T03570153  RH  030%=      5-min Rain = 0
KLO1 201926Z 16011KT 36/15 A3007 RMK A01 T03610154  RH  029%=      5-min Rain = 0
KLO1 201927Z 16007KT 36/16 A3007 RMK A01 T03610155  RH  029%=      5-min Rain = 0
KLO1 201928Z 17004KT 36/15 A3007 RMK A01 T03600153  RH  029%=      5-min Rain = 0
KLO1 201929Z 19004KT 36/15 A3006 RMK A01 T03590152  RH  029%=      5-min Rain = 0
KLO1 201930Z 18003KT 36/15 A3006 RMK A01 T03580152  RH  029%=      5-min Rain = 0
KLO1 201931Z 15006KT 36/15 A3006 RMK A01 T03590153  RH  029%=      5-min Rain = 0
KLO1 201932Z 15007KT 36/15 A3006 RMK A01 T03610154  RH  029%=      5-min Rain = 0
KLO1 201933Z 17006G12KT 36/15 A3006 RMK A01 T03600151  RH  029%=      5-min Rain = 0
KLO1 201934Z 17012KT 36/16 A3006 RMK A01 T03610156  RH  030%=      5-min Rain = 0
KLO1 201935Z 16010KT 37/15 A3006 RMK A01 T03650154  RH  029%=      5-min Rain = 0
KLO1 201936Z 18008KT 36/15 A3006 RMK A01 T03640151  RH  028%=      5-min Rain = 0
KLO1 201937Z 17008KT 36/15 A3006 RMK A01 T03620150  RH  028%=      5-min Rain = 0
KLO1 201938Z 16010KT 36/15 A3006 RMK A01 T03620151  RH  029%=      5-min Rain = 0
KLO1 201939Z 13007KT 36/15 A3006 RMK A01 T03620150  RH  028%=      5-min Rain = 0
KLO1 201940Z 13004KT 36/15 A3006 RMK A01 T03600151  RH  029%=      5-min Rain = 0
KLO1 201941Z 14005KT 36/15 A3006 RMK A01 T03610151  RH  029%=      5-min Rain = 0
KLO1 201942Z 15011KT 36/15 A3006 RMK A01 T03620154  RH  029%=      5-min Rain = 0
KLO1 201943Z 16010KT 36/16 A3006 RMK A01 T03630155  RH  029%=      5-min Rain = 0
KLO1 201944Z 16009KT 36/15 A3006 RMK A01 T03620154  RH  029%=      5-min Rain = 0
KLO1 201945Z 16007KT 36/16 A3006 RMK A01 T03620156  RH  029%=      5-min Rain = 0
KLO1 201946Z 17007KT 36/15 A3006 RMK A01 T03630152  RH  029%=      5-min Rain = 0
KLO1 201947Z 14005KT 37/16 A3006 RMK A01 T03650156  RH  029%=      5-min Rain = 0
KLO1 201948Z 12006KT 37/15 A3006 RMK A01 T03680149  RH  027%=      5-min Rain = 0
KLO1 201949Z 13004KT 37/15 A3006 RMK A01 T03660150  RH  028%=      5-min Rain = 0
KLO1 201950Z 14003KT 36/15 A3006 RMK A01 T03620150  RH  028%=      5-min Rain = 0
KLO1 201951Z 14008G16KT 36/15 A3006 RMK A01 T03620152  RH  029%=      5-min Rain = 0
KLO1 201952Z 14014KT 36/15 A3006 RMK A01 T03640151  RH  028%=      5-min Rain = 0
KLO1 201953Z 15012KT 37/15 A3006 RMK A01 T03650149  RH  028%=      5-min Rain = 0
KLO1 201954Z 14011KT 36/15 A3006 RMK A01 T03640150  RH  028%=      5-min Rain = 0
KLO1 201955Z 13011KT 37/15 A3006 RMK A01 T03660148  RH  027%=      5-min Rain = 0
KLO1 201956Z 15008KT 37/15 A3006 RMK A01 T03650148  RH  028%=      5-min Rain = 0
KLO1 201957Z 15010KT 37/15 A3006 RMK A01 T03670148  RH  027%=      5-min Rain = 0
KLO1 201958Z 14010KT 37/15 A3006 RMK A01 T03680148  RH  027%=      5-min Rain = 0
KLO1 201959Z 15008KT 37/15 A3006 RMK A01 T03660148  RH  027%=      5-min Rain = 0
KLO1 202000Z 13004KT 36/15 A3006 RMK A01 T03630149  RH  028%=      5-min Rain = 0
KLO1 202001Z 13003KT 36/15 A3005 RMK A01 T03620149  RH  028%=      5-min Rain = 0
KLO1 202002Z 15001KT 36/15 A3005 RMK A01 T03620148  RH  028%=      5-min Rain = 0
KLO1 202003Z 15004KT 36/15 A3005 RMK A01 T03620148  RH  028%=      5-min Rain = 0
KLO1 202004Z 11003KT 37/15 A3005 RMK A01 T03650151  RH  028%=      5-min Rain = 0
KLO1 202005Z 17007KT 37/15 A3005 RMK A01 T03690153  RH  028%=      5-min Rain = 0
KLO1 202006Z 14011KT 37/16 A3005 RMK A01 T03700155  RH  028%=      5-min Rain = 0
KLO1 202007Z 13008KT 37/16 A3005 RMK A01 T03680156  RH  028%=      5-min Rain = 0
KLO1 202008Z 13006KT 37/16 A3005 RMK A01 T03680155  RH  028%=      5-min Rain = 0
KLO1 202009Z 13011KT 37/15 A3005 RMK A01 T03680154  RH  028%=      5-min Rain = 0
KLO1 202010Z 17009KT 37/15 A3005 RMK A01 T03680153  RH  028%=      5-min Rain = 0
KLO1 202011Z 17009KT 37/15 A3005 RMK A01 T03670154  RH  028%=      5-min Rain = 0
KLO1 202012Z 17010KT 37/16 A3005 RMK A01 T03680155  RH  028%=      5-min Rain = 0
KLO1 202013Z 16010KT 37/15 A3005 RMK A01 T03700152  RH  028%=      5-min Rain = 0
KLO1 202014Z 16010KT 37/15 A3005 RMK A01 T03700154  RH  028%=      5-min Rain = 0
KLO1 202015Z 12010KT 37/16 A3005 RMK A01 T03720158  RH  028%=      5-min Rain = 0
KLO1 202016Z 15009KT 38/16 A3005 RMK A01 T03760157  RH  027%=      5-min Rain = 0
KLO1 202017Z 14007KT 38/16 A3005 RMK A01 T03760156  RH  027%=      5-min Rain = 0
KLO1 202018Z 14008KT 38/16 A3005 RMK A01 T03750158  RH  028%=      5-min Rain = 0
KLO1 202019Z 13009KT 37/15 A3005 RMK A01 T03740153  RH  027%=      5-min Rain = 0
KLO1 202020Z 13010KT 37/15 A3005 RMK A01 T03720154  RH  027%=      5-min Rain = 0
KLO1 202021Z 11010KT 37/15 A3005 RMK A01 T03720151  RH  027%=      5-min Rain = 0
KLO1 202022Z 12008KT 37/15 A3005 RMK A01 T03710148  RH  027%=      5-min Rain = 0
KLO1 202023Z 13007KT 37/15 A3005 RMK A01 T03700149  RH  027%=      5-min Rain = 0
KLO1 202024Z 17006KT 37/15 A3005 RMK A01 T03700148  RH  027%=      5-min Rain = 0
KLO1 202025Z 20007KT 37/15 A3004 RMK A01 T03690150  RH  027%=      5-min Rain = 0
KLO1 202026Z 19006KT 37/15 A3004 RMK A01 T03660147  RH  027%=      5-min Rain = 0
KLO1 202027Z 19005KT 36/15 A3004 RMK A01 T03630148  RH  028%=      5-min Rain = 0
KLO1 202028Z 14009KT 36/15 A3004 RMK A01 T03620152  RH  029%=      5-min Rain = 0
KLO1 202029Z 12010KT 37/15 A3004 RMK A01 T03650153  RH  028%=      5-min Rain = 0
KLO1 202030Z 13007KT 37/15 A3004 RMK A01 T03660151  RH  028%=      5-min Rain = 0
KLO1 202031Z 13005KT 37/15 A3004 RMK A01 T03670151  RH  028%=      5-min Rain = 0
KLO1 202032Z 15012KT 37/15 A3004 RMK A01 T03700151  RH  027%=      5-min Rain = 0
KLO1 202033Z 14014KT 37/15 A3004 RMK A01 T03710149  RH  027%=      5-min Rain = 0
KLO1 202034Z 15010KT 37/15 A3004 RMK A01 T03700147  RH  027%=      5-min Rain = 0
KLO1 202035Z 17010KT 37/15 A3004 RMK A01 T03670149  RH  027%=      5-min Rain = 0
KLO1 202036Z 15012KT 37/15 A3004 RMK A01 T03660150  RH  028%=      5-min Rain = 0
KLO1 202037Z 16016KT 37/15 A3004 RMK A01 T03670148  RH  027%=      5-min Rain = 0
KLO1 202038Z 17014KT 37/15 A3004 RMK A01 T03670147  RH  027%=      5-min Rain = 0
KLO1 202039Z 16011KT 37/14 A3004 RMK A01 T03660142  RH  026%=      5-min Rain = 0
KLO1 202040Z 15010KT 37/14 A3004 RMK A01 T03660143  RH  027%=      5-min Rain = 0
KLO1 202041Z 14009KT 37/14 A3004 RMK A01 T03660143  RH  027%=      5-min Rain = 0
KLO1 202042Z 13008KT 37/14 A3004 RMK A01 T03680139  RH  025%=      5-min Rain = 0
KLO1 202043Z 15008KT 37/14 A3004 RMK A01 T03720142  RH  026%=      5-min Rain = 0
KLO1 202044Z 11009KT 37/14 A3004 RMK A01 T03740142  RH  025%=      5-min Rain = 0
KLO1 202045Z 13007KT 37/14 A3004 RMK A01 T03740139  RH  025%=      5-min Rain = 0
KLO1 202046Z 13007KT 37/13 A3004 RMK A01 T03730134  RH  024%=      5-min Rain = 0
KLO1 202047Z 15006KT 37/14 A3004 RMK A01 T03700135  RH  025%=      5-min Rain = 0
KLO1 202048Z 16004KT 37/13 A3003 RMK A01 T03700134  RH  024%=      5-min Rain = 0
KLO1 202049Z 13009KT 37/14 A3003 RMK A01 T03710138  RH  025%=      5-min Rain = 0
KLO1 202050Z 12009KT 37/14 A3003 RMK A01 T03740143  RH  025%=      5-min Rain = 0
KLO1 202051Z 13005KT 37/14 A3003 RMK A01 T03710144  RH  026%=      5-min Rain = 0
KLO1 202052Z 16010KT 37/15 A3003 RMK A01 T03690146  RH  027%=      5-min Rain = 0
KLO1 202053Z 15012KT 37/15 A3003 RMK A01 T03660146  RH  027%=      5-min Rain = 0
KLO1 202054Z 15012KT 37/15 A3003 RMK A01 T03650145  RH  027%=      5-min Rain = 0
KLO1 202055Z 15013KT 36/15 A3003 RMK A01 T03640145  RH  027%=      5-min Rain = 0
KLO1 202056Z 15011KT 37/15 A3003 RMK A01 T03660146  RH  027%=      5-min Rain = 0
KLO1 202057Z 15006G11KT 37/14 A3003 RMK A01 T03670144  RH  027%=      5-min Rain = 0
KLO1 202058Z 17006KT 37/14 A3003 RMK A01 T03660143  RH  027%=      5-min Rain = 0
KLO1 202059Z 16004KT 37/14 A3003 RMK A01 T03660142  RH  026%=      5-min Rain = 0
KLO1 202100Z 15006KT 37/14 A3003 RMK A01 T03660142  RH  026%=      5-min Rain = 0
KLO1 202101Z 16009KT 37/14 A3003 RMK A01 T03680144  RH  027%=      5-min Rain = 0
KLO1 202102Z 16012KT 37/15 A3003 RMK A01 T03690145  RH  026%=      5-min Rain = 0
KLO1 202103Z 16007KT 37/14 A3003 RMK A01 T03690144  RH  026%=      5-min Rain = 0
KLO1 202104Z 16007KT 37/15 A3003 RMK A01 T03680146  RH  027%=      5-min Rain = 0
KLO1 202105Z 16007KT 37/15 A3003 RMK A01 T03680145  RH  027%=      5-min Rain = 0
KLO1 202106Z 14006KT 37/15 A3002 RMK A01 T03690145  RH  026%=      5-min Rain = 0
KLO1 202107Z 15010KT 37/14 A3002 RMK A01 T03710143  RH  026%=      5-min Rain = 0
KLO1 202108Z 17009KT 37/14 A3002 RMK A01 T03700141  RH  026%=      5-min Rain = 0
KLO1 202109Z 16016KT 37/15 A3002 RMK A01 T03690145  RH  026%=      5-min Rain = 0
KLO1 202110Z 12012KT 37/14 A3002 RMK A01 T03700143  RH  026%=      5-min Rain = 0
KLO1 202111Z 17010KT 37/14 A3002 RMK A01 T03710143  RH  026%=      5-min Rain = 0
KLO1 202112Z 14009KT 37/14 A3002 RMK A01 T03710139  RH  025%=      5-min Rain = 0
KLO1 202113Z 15006KT 37/13 A3002 RMK A01 T03680133  RH  025%=      5-min Rain = 0
KLO1 202114Z 15007KT 37/14 A3002 RMK A01 T03700138  RH  025%=      5-min Rain = 0
KLO1 202115Z 17008KT 38/14 A3002 RMK A01 T03750140  RH  025%=      5-min Rain = 0
KLO1 202116Z 17008KT 37/13 A3002 RMK A01 T03740132  RH  024%=      5-min Rain = 0
KLO1 202117Z 17010KT 37/14 A3002 RMK A01 T03720138  RH  025%=      5-min Rain = 0
KLO1 202118Z 18011KT 37/14 A3002 RMK A01 T03730139  RH  025%=      5-min Rain = 0
KLO1 202119Z 16009KT 37/14 A3002 RMK A01 T03720137  RH  025%=      5-min Rain = 0
KLO1 202120Z 14009KT 37/14 A3002 RMK A01 T03710139  RH  025%=      5-min Rain = 0
KLO1 202121Z 13010KT 37/14 A3002 RMK A01 T03730139  RH  025%=      5-min Rain = 0
KLO1 202122Z 11010KT 37/13 A3002 RMK A01 T03740131  RH  023%=      5-min Rain = 0
KLO1 202123Z 13011KT 37/13 A3002 RMK A01 T03740127  RH  023%=      5-min Rain = 0
KLO1 202124Z 12010KT 37/13 A3002 RMK A01 T03730126  RH  023%=      5-min Rain = 0
KLO1 202125Z 12010KT 37/13 A3002 RMK A01 T03720128  RH  023%=      5-min Rain = 0
KLO1 202126Z 12009KT 37/13 A3002 RMK A01 T03720126  RH  023%=      5-min Rain = 0
KLO1 202127Z 12007KT 37/12 A3002 RMK A01 T03730124  RH  023%=      5-min Rain = 0
KLO1 202128Z 14010KT 37/13 A3002 RMK A01 T03740133  RH  024%=      5-min Rain = 0
KLO1 202129Z 13007KT 37/14 A3002 RMK A01 T03740135  RH  024%=      5-min Rain = 0
KLO1 202130Z 15008KT 37/14 A3002 RMK A01 T03740139  RH  025%=      5-min Rain = 0
KLO1 202131Z 15011KT 38/14 A3002 RMK A01 T03760138  RH  024%=      5-min Rain = 0
KLO1 202132Z 15008KT 38/14 A3002 RMK A01 T03750136  RH  024%=      5-min Rain = 0
KLO1 202133Z 16008KT 37/13 A3002 RMK A01 T03740134  RH  024%=      5-min Rain = 0
KLO1 202134Z 14008KT 37/14 A3002 RMK A01 T03730138  RH  025%=      5-min Rain = 0
KLO1 202135Z 16012KT 38/13 A3001 RMK A01 T03750130  RH  023%=      5-min Rain = 0
KLO1 202136Z 17011KT 38/13 A3001 RMK A01 T03750131  RH  023%=      5-min Rain = 0
KLO1 202137Z 17009KT 37/13 A3001 RMK A01 T03740129  RH  023%=      5-min Rain = 0
KLO1 202138Z 18008KT 37/13 A3001 RMK A01 T03720129  RH  023%=      5-min Rain = 0
KLO1 202139Z 20006KT 37/13 A3001 RMK A01 T03700127  RH  023%=      5-min Rain = 0
KLO1 202140Z 17005KT 37/13 A3001 RMK A01 T03710129  RH  024%=      5-min Rain = 0
KLO1 202141Z 18004KT 37/13 A3001 RMK A01 T03720131  RH  024%=      5-min Rain = 0
KLO1 202142Z 14006KT 38/13 A3001 RMK A01 T03750130  RH  023%=      5-min Rain = 0
KLO1 202143Z 11006KT 38/13 A3001 RMK A01 T03770128  RH  023%=      5-min Rain = 0
KLO1 202144Z 11007KT 38/12 A3001 RMK A01 T03790124  RH  022%=      5-min Rain = 0
KLO1 202145Z 14006KT 38/12 A3001 RMK A01 T03790124  RH  022%=      5-min Rain = 0
KLO1 202146Z 15007KT 38/13 A3001 RMK A01 T03780125  RH  022%=      5-min Rain = 0
KLO1 202147Z 14009KT 38/13 A3001 RMK A01 T03780128  RH  022%=      5-min Rain = 0
KLO1 202148Z 13007KT 38/13 A3001 RMK A01 T03780130  RH  023%=      5-min Rain = 0
KLO1 202149Z 13009KT 38/13 A3001 RMK A01 T03790133  RH  023%=      5-min Rain = 0
KLO1 202150Z 13012KT 38/13 A3001 RMK A01 T03800131  RH  023%=      5-min Rain = 0
KLO1 202151Z 13015KT 38/13 A3001 RMK A01 T03800129  RH  022%=      5-min Rain = 0
KLO1 202152Z 14011KT 38/13 A3001 RMK A01 T03790126  RH  022%=      5-min Rain = 0
KLO1 202153Z 15008KT 38/12 A3001 RMK A01 T03750123  RH  022%=      5-min Rain = 0
KLO1 202154Z 15009KT 37/12 A3001 RMK A01 T03730124  RH  022%=      5-min Rain = 0
KLO1 202155Z 15009KT 37/13 A3001 RMK A01 T03730125  RH  023%=      5-min Rain = 0
KLO1 202156Z 15006KT 38/12 A3001 RMK A01 T03750120  RH  022%=      5-min Rain = 0
KLO1 202157Z 15006KT 37/12 A3001 RMK A01 T03740119  RH  022%=      5-min Rain = 0
KLO1 202158Z 16009KT 37/12 A3001 RMK A01 T03740116  RH  021%=      5-min Rain = 0
KLO1 202159Z 14012KT 37/12 A3001 RMK A01 T03740120  RH  022%=      5-min Rain = 0
KLO1 202200Z 14011KT 38/12 A3001 RMK A01 T03750116  RH  021%=      5-min Rain = 0
KLO1 202201Z 12006KT 37/11 A3001 RMK A01 T03730113  RH  021%=      5-min Rain = 0
KLO1 202202Z 10005KT 37/11 A3001 RMK A01 T03720111  RH  021%=      5-min Rain = 0
KLO1 202203Z 11007KT 37/12 A3001 RMK A01 T03730115  RH  021%=      5-min Rain = 0
KLO1 202204Z 12007KT 37/12 A3001 RMK A01 T03740116  RH  021%=      5-min Rain = 0
KLO1 202205Z 14010KT 38/13 A3001 RMK A01 T03760128  RH  023%=      5-min Rain = 0
KLO1 202206Z 11009KT 38/12 A3001 RMK A01 T03760123  RH  022%=      5-min Rain = 0
KLO1 202207Z 12010KT 37/12 A3001 RMK A01 T03740115  RH  021%=      5-min Rain = 0
KLO1 202208Z 12010KT 37/12 A3001 RMK A01 T03730116  RH  021%=      5-min Rain = 0
KLO1 202209Z 12011KT 38/11 A3001 RMK A01 T03750113  RH  021%=      5-min Rain = 0
KLO1 202210Z 11011KT 38/11 A3001 RMK A01 T03750109  RH  020%=      5-min Rain = 0
KLO1 202211Z 10010KT 37/11 A3001 RMK A01 T03740108  RH  020%=      5-min Rain = 0
KLO1 202212Z 12011KT 37/11 A3001 RMK A01 T03740114  RH  021%=      5-min Rain = 0
KLO1 202213Z 13012KT 38/12 A3001 RMK A01 T03750116  RH  021%=      5-min Rain = 0
KLO1 202214Z 12011KT 38/12 A3001 RMK A01 T03750115  RH  021%=      5-min Rain = 0
KLO1 202215Z 11011KT 38/12 A3001 RMK A01 T03750116  RH  021%=      5-min Rain = 0
KLO1 202216Z 12010KT 38/12 A3001 RMK A01 T03750115  RH  021%=      5-min Rain = 0
KLO1 202217Z 12007KT 37/12 A3001 RMK A01 T03740119  RH  022%=      5-min Rain = 0
KLO1 202218Z 12008KT 38/12 A3001 RMK A01 T03760124  RH  022%=      5-min Rain = 0
KLO1 202219Z 13008KT 38/12 A3001 RMK A01 T03760123  RH  022%=      5-min Rain = 0
KLO1 202220Z 16008KT 37/12 A3001 RMK A01 T03730122  RH  022%=      5-min Rain = 0
KLO1 202221Z 17006KT 37/12 A3001 RMK A01 T03710119  RH  022%=      5-min Rain = 0
KLO1 202222Z 16005KT 37/12 A3001 RMK A01 T03680119  RH  022%=      5-min Rain = 0
KLO1 202223Z 15003KT 37/12 A3001 RMK A01 T03670122  RH  023%=      5-min Rain = 0
KLO1 202224Z 14003KT 37/12 A3001 RMK A01 T03680122  RH  023%=      5-min Rain = 0
KLO1 202225Z 13006KT 37/12 A3001 RMK A01 T03700124  RH  023%=      5-min Rain = 0
KLO1 202226Z 13005KT 37/13 A3001 RMK A01 T03710125  RH  023%=      5-min Rain = 0
KLO1 202227Z 11011KT 37/13 A30 RMK A01 T03730126  RH  023%=      5-min Rain = 0
KLO1 202228Z 11011KT 37/12 A3001 RMK A01 T03740119  RH  022%=      5-min Rain = 0
KLO1 202229Z 11011KT 37/12 A3001 RMK A01 T03740120  RH  022%=      5-min Rain = 0
KLO1 202230Z 10011KT 37/12 A3001 RMK A01 T03730121  RH  022%=      5-min Rain = 0
KLO1 202231Z 10011KT 37/12 A3001 RMK A01 T03740119  RH  022%=      5-min Rain = 0
KLO1 202232Z 10009KT 37/12 A3001 RMK A01 T03740117  RH  021%=      5-min Rain = 0
KLO1 202233Z 10008KT 37/12 A3001 RMK A01 T03740117  RH  021%=      5-min Rain = 0
KLO1 202234Z 11008KT 38/12 A3001 RMK A01 T03760120  RH  022%=      5-min Rain = 0
KLO1 202235Z 12007KT 38/12 A3001 RMK A01 T03750118  RH  021%=      5-min Rain = 0
KLO1 202236Z 12006KT 37/12 A30 RMK A01 T03740118  RH  021%=      5-min Rain = 0
KLO1 202237Z 12007KT 37/12 A30 RMK A01 T03740118  RH  022%=      5-min Rain = 0
KLO1 202238Z 13006KT 38/12 A30 RMK A01 T03750118  RH  021%=      5-min Rain = 0
KLO1 202239Z 14005KT 37/12 A30 RMK A01 T03740115  RH  021%=      5-min Rain = 0
KLO1 202240Z 13005KT 37/12 A30 RMK A01 T03740116  RH  021%=      5-min Rain = 0
KLO1 202241Z 12006KT 37/12 A30 RMK A01 T03740117  RH  021%=      5-min Rain = 0
KLO1 202242Z 13006KT 37/12 A30 RMK A01 T03730119  RH  022%=      5-min Rain = 0
KLO1 202243Z 12004KT 37/12 A30 RMK A01 T03740120  RH  022%=      5-min Rain = 0
KLO1 202244Z 13004KT 38/12 A30 RMK A01 T03750119  RH  022%=      5-min Rain = 0
KLO1 202245Z 14004KT 38/12 A30 RMK A01 T03750121  RH  022%=      5-min Rain = 0
KLO1 202246Z 17005KT 38/13 A30 RMK A01 T03760128  RH  023%=      5-min Rain = 0
KLO1 202247Z 13008KT 38/13 A30 RMK A01 T03780131  RH  023%=      5-min Rain = 0
KLO1 202248Z 15007KT 38/13 A30 RMK A01 T03790131  RH  023%=      5-min Rain = 0
KLO1 202249Z 15010KT 38/12 A30 RMK A01 T03790124  RH  022%=      5-min Rain = 0
KLO1 202250Z 15008KT 38/12 A30 RMK A01 T03760124  RH  022%=      5-min Rain = 0
KLO1 202251Z 13009KT 38/12 A30 RMK A01 T03760123  RH  022%=      5-min Rain = 0
KLO1 202252Z 13011KT 38/12 A3001 RMK A01 T03750124  RH  022%=      5-min Rain = 0
KLO1 202253Z 12012KT 38/12 A3001 RMK A01 T03750124  RH  022%=      5-min Rain = 0
KLO1 202254Z 12013KT 37/12 A3001 RMK A01 T03740124  RH  022%=      5-min Rain = 0
KLO1 202255Z 12010KT 37/12 A3001 RMK A01 T03730124  RH  023%=      5-min Rain = 0
KLO1 202256Z 13008KT 37/13 A3001 RMK A01 T03720126  RH  023%=      5-min Rain = 0
KLO1 202257Z 14007KT 37/13 A30 RMK A01 T03740126  RH  023%=      5-min Rain = 0
KLO1 202258Z 12010KT 38/13 A30 RMK A01 T03760128  RH  023%=      5-min Rain = 0
KLO1 202259Z 11014KT 38/13 A3001 RMK A01 T03780127  RH  022%=      5-min Rain = 0
KLO1 202300Z 12013KT 38/13 A3001 RMK A01 T03760126  RH  022%=      5-min Rain = 0
KLO1 202301Z 14013KT 37/13 A30 RMK A01 T03730126  RH  023%=      5-min Rain = 0
KLO1 202302Z 13009KT 37/13 A30 RMK A01 T03720125  RH  023%=      5-min Rain = 0
KLO1 202303Z 11010G16KT 37/13 A30 RMK A01 T03710128  RH  023%=      5-min Rain = 0
KLO1 202304Z 11014KT 37/13 A3001 RMK A01 T03710127  RH  023%=      5-min Rain = 0
KLO1 202305Z 11011KT 37/13 A3001 RMK A01 T03700127  RH  023%=      5-min Rain = 0
KLO1 202306Z 11011KT 37/13 A30 RMK A01 T03690128  RH  024%=      5-min Rain = 0
KLO1 202307Z 11009KT 37/13 A30 RMK A01 T03690129  RH  024%=      5-min Rain = 0
KLO1 202308Z 11012KT 37/13 A30 RMK A01 T03700130  RH  024%=      5-min Rain = 0
KLO1 202309Z 13009KT 37/13 A30 RMK A01 T03700131  RH  024%=      5-min Rain = 0
KLO1 202310Z 13011KT 37/13 A30 RMK A01 T03710134  RH  024%=      5-min Rain = 0
KLO1 202311Z 13012KT 37/13 A30 RMK A01 T03710131  RH  024%=      5-min Rain = 0
KLO1 202312Z 12010KT 37/13 A30 RMK A01 T03700131  RH  024%=      5-min Rain = 0
KLO1 202313Z 13012KT 37/13 A30 RMK A01 T03690131  RH  024%=      5-min Rain = 0
KLO1 202314Z 14010KT 37/13 A30 RMK A01 T03690132  RH  024%=      5-min Rain = 0
KLO1 202315Z 15012KT 37/13 A30 RMK A01 T03680134  RH  025%=      5-min Rain = 0
KLO1 202316Z 15012KT 37/13 A30 RMK A01 T03690131  RH  024%=      5-min Rain = 0
KLO1 202317Z 14013KT 37/13 A30 RMK A01 T03680129  RH  024%=      5-min Rain = 0
KLO1 202318Z 13015KT 37/13 A30 RMK A01 T03670126  RH  024%=      5-min Rain = 0
KLO1 202319Z 13014KT 37/12 A3001 RMK A01 T03670123  RH  023%=      5-min Rain = 0
KLO1 202320Z 12011KT 37/12 A3001 RMK A01 T03670122  RH  023%=      5-min Rain = 0
KLO1 202321Z 12010KT 37/12 A3001 RMK A01 T03670121  RH  023%=      5-min Rain = 0
KLO1 202322Z 12008KT 37/12 A3001 RMK A01 T03670123  RH  023%=      5-min Rain = 0
KLO1 202323Z 14010KT 37/13 A30 RMK A01 T03670125  RH  023%=      5-min Rain = 0
KLO1 202324Z 13012KT 37/13 A30 RMK A01 T03680126  RH  023%=      5-min Rain = 0
KLO1 202325Z 12010KT 37/13 A3001 RMK A01 T03660129  RH  024%=      5-min Rain = 0
KLO1 202326Z 12009KT 37/13 A3001 RMK A01 T03660130  RH  024%=      5-min Rain = 0
KLO1 202327Z 12011KT 37/13 A3001 RMK A01 T03660130  RH  024%=      5-min Rain = 0
KLO1 202328Z 13012KT 37/13 A3001 RMK A01 T03650129  RH  024%=      5-min Rain = 0
KLO1 202329Z 13012KT 36/13 A30 RMK A01 T03640130  RH  025%=      5-min Rain = 0
KLO1 202330Z 13012KT 36/13 A30 RMK A01 T03630131  RH  025%=      5-min Rain = 0
KLO1 202331Z 13009KT 36/13 A30 RMK A01 T03630130  RH  025%=      5-min Rain = 0
KLO1 202332Z 13009KT 36/13 A30 RMK A01 T03630131  RH  025%=      5-min Rain = 0
KLO1 202333Z 11011KT 36/13 A30 RMK A01 T03630132  RH  025%=      5-min Rain = 0
KLO1 202334Z 13014KT 36/13 A30 RMK A01 T03630132  RH  025%=      5-min Rain = 0
KLO1 202335Z 14011KT 36/14 A30 RMK A01 T03630136  RH  026%=      5-min Rain = 0
KLO1 202336Z 14011KT 36/14 A30 RMK A01 T03630135  RH  026%=      5-min Rain = 0
KLO1 202337Z 13012KT 36/13 A30 RMK A01 T03630134  RH  025%=      5-min Rain = 0
KLO1 202338Z 13012KT 36/13 A30 RMK A01 T03630134  RH  025%=      5-min Rain = 0
KLO1 202339Z 12016KT 36/13 A30 RMK A01 T03630130  RH  025%=      5-min Rain = 0
KLO1 202340Z 13014KT 36/13 A30 RMK A01 T03630127  RH  024%=      5-min Rain = 0
KLO1 202341Z 13010KT 36/13 A30 RMK A01 T03620125  RH  024%=      5-min Rain = 0
KLO1 202342Z 14011KT 36/13 A30 RMK A01 T03610127  RH  024%=      5-min Rain = 0
KLO1 202343Z 13013KT 36/13 A30 RMK A01 T03610126  RH  024%=      5-min Rain = 0
KLO1 202344Z 12013KT 36/12 A30 RMK A01 T03610124  RH  024%=      5-min Rain = 0
KLO1 202345Z 14011KT 36/13 A30 RMK A01 T03610126  RH  024%=      5-min Rain = 0
KLO1 202346Z 14012KT 36/13 A30 RMK A01 T03610126  RH  024%=      5-min Rain = 0
KLO1 202347Z 14013G19KT 36/13 A30 RMK A01 T03620126  RH  024%=      5-min Rain = 0
KLO1 202348Z 14013KT 36/13 A30 RMK A01 T03620127  RH  025%=      5-min Rain = 0
KLO1 202349Z 12012G17KT 36/13 A30 RMK A01 T03610127  RH  025%=      5-min Rain = 0
KLO1 202350Z 13013KT 36/13 A30 RMK A01 T03600127  RH  025%=      5-min Rain = 0
KLO1 202351Z 14012KT 36/13 A30 RMK A01 T03600128  RH  025%=      5-min Rain = 0
KLO1 202352Z 15010KT 36/13 A30 RMK A01 T03590130  RH  025%=      5-min Rain = 0
KLO1 202353Z 15012KT 36/13 A30 RMK A01 T03590129  RH  025%=      5-min Rain = 0
KLO1 202354Z 14013KT 36/13 A30 RMK A01 T03590130  RH  025%=      5-min Rain = 0
KLO1 202355Z 15012KT 36/13 A30 RMK A01 T03590130  RH  025%=      5-min Rain = 0
KLO1 202356Z 15012KT 36/13 A30 RMK A01 T03580130  RH  025%=      5-min Rain = 0
KLO1 202357Z 15012KT 36/13 A30 RMK A01 T03570128  RH  025%=      5-min Rain = 0
KLO1 202358Z 14012KT 36/13 A30 RMK A01 T03560128  RH  025%=      5-min Rain = 0
KLO1 202359Z 14010KT 36/13 A30 RMK A01 T03550128  RH  026%=      5-min Rain = 0
KLO1 210000Z 14009KT 36/13 A30 RMK A01 T03550129  RH  026%=      5-min Rain = 0
KLO1 210001Z 14010KT 35/13 A30 RMK A01 T03540128  RH  026%=      5-min Rain = 0
KLO1 210002Z 14009KT 35/13 A30 RMK A01 T03540128  RH  026%=      5-min Rain = 0
KLO1 210003Z 14010KT 35/13 A30 RMK A01 T03540128  RH  026%=      5-min Rain = 0
KLO1 210004Z 14008KT 35/13 A30 RMK A01 T03540128  RH  026%=      5-min Rain = 0
KLO1 210005Z 15008KT 35/13 A30 RMK A01 T03540129  RH  026%=      5-min Rain = 0
KLO1 210006Z 14010KT 35/13 A30 RMK A01 T03540127  RH  025%=      5-min Rain = 0
KLO1 210007Z 14007KT 36/13 A30 RMK A01 T03550126  RH  025%=      5-min Rain = 0
KLO1 210008Z 13007KT 36/13 A30 RMK A01 T03550129  RH  026%=      5-min Rain = 0
KLO1 210009Z 15008KT 36/13 A30 RMK A01 T03560130  RH  026%=      5-min Rain = 0
KLO1 210010Z 15008KT 36/13 A30 RMK A01 T03550130  RH  026%=      5-min Rain = 0
KLO1 210011Z 15007KT 36/13 A30 RMK A01 T03550128  RH  026%=      5-min Rain = 0
KLO1 210012Z 15007KT 35/13 A30 RMK A01 T03540129  RH  026%=      5-min Rain = 0
KLO1 210013Z 16008KT 35/13 A30 RMK A01 T03530127  RH  026%=      5-min Rain = 0
KLO1 210014Z 15009KT 35/13 A30 RMK A01 T03520125  RH  025%=      5-min Rain = 0
KLO1 210015Z 15009KT 35/13 A30 RMK A01 T03520126  RH  026%=      5-min Rain = 0
KLO1 210016Z 15008KT 35/13 A30 RMK A01 T03520126  RH  026%=      5-min Rain = 0
KLO1 210017Z 15009KT 35/13 A30 RMK A01 T03530127  RH  026%=      5-min Rain = 0
KLO1 210018Z 15009KT 35/13 A30 RMK A01 T03530126  RH  025%=      5-min Rain = 0
KLO1 210019Z 15010KT 35/13 A30 RMK A01 T03540126  RH  025%=      5-min Rain = 0
KLO1 210020Z 15008KT 35/13 A30 RMK A01 T03540125  RH  025%=      5-min Rain = 0
KLO1 210021Z 14007KT 35/13 A30 RMK A01 T03540128  RH  026%=      5-min Rain = 0
KLO1 210022Z 14008KT 35/13 A30 RMK A01 T03540129  RH  026%=      5-min Rain = 0
KLO1 210023Z 15011KT 35/13 A30 RMK A01 T03540126  RH  025%=      5-min Rain = 0
KLO1 210024Z 14009KT 35/13 A30 RMK A01 T03540125  RH  025%=      5-min Rain = 0
KLO1 210025Z 15010KT 35/13 A30 RMK A01 T03540125  RH  025%=      5-min Rain = 0
KLO1 210026Z 14010KT 35/13 A30 RMK A01 T03540126  RH  025%=      5-min Rain = 0
KLO1 210027Z 15008KT 35/13 A30 RMK A01 T03530127  RH  026%=      5-min Rain = 0
KLO1 210028Z 15009KT 35/13 A30 RMK A01 T03530129  RH  026%=      5-min Rain = 0
KLO1 210029Z 14009KT 35/13 A30 RMK A01 T03520130  RH  026%=      5-min Rain = 0
KLO1 210030Z 14008KT 35/13 A30 RMK A01 T03510130  RH  026%=      5-min Rain = 0
KLO1 210031Z 14008KT 35/13 A30 RMK A01 T03510132  RH  027%=      5-min Rain = 0
KLO1 210032Z 14009KT 35/13 A30 RMK A01 T03500131  RH  027%=      5-min Rain = 0
KLO1 210033Z 14009KT 35/13 A30 RMK A01 T03500132  RH  027%=      5-min Rain = 0
KLO1 210034Z 14007KT 35/13 A30 RMK A01 T03490132  RH  027%=      5-min Rain = 0
KLO1 210035Z 14007KT 35/13 A30 RMK A01 T03490133  RH  027%=      5-min Rain = 0
KLO1 210036Z 14009KT 35/13 A30 RMK A01 T03490132  RH  027%=      5-min Rain = 0
KLO1 210037Z 14011KT 35/13 A30 RMK A01 T03490129  RH  027%=      5-min Rain = 0
KLO1 210038Z 14010KT 35/13 A30 RMK A01 T03490130  RH  027%=      5-min Rain = 0
KLO1 210039Z 14009KT 35/13 A30 RMK A01 T03490130  RH  027%=      5-min Rain = 0
KLO1 210040Z 14010KT 35/13 A30 RMK A01 T03480131  RH  027%=      5-min Rain = 0
KLO1 210041Z 14009KT 35/13 A30 RMK A01 T03470131  RH  027%=      5-min Rain = 0
KLO1 210042Z 14009KT 35/13 A3001 RMK A01 T03470131  RH  027%=      5-min Rain = 0
KLO1 210043Z 14008KT 35/13 A3001 RMK A01 T03460132  RH  028%=      5-min Rain = 0
KLO1 210044Z 14007KT 35/13 A3001 RMK A01 T03450132  RH  028%=      5-min Rain = 0
KLO1 210045Z 14009KT 34/13 A3001 RMK A01 T03440132  RH  028%=      5-min Rain = 0
KLO1 210046Z 14008KT 34/13 A3001 RMK A01 T03440131  RH  028%=      5-min Rain = 0
KLO1 210047Z 14009KT 34/13 A3001 RMK A01 T03440130  RH  027%=      5-min Rain = 0
KLO1 210048Z 13009KT 34/13 A3001 RMK A01 T03440130  RH  027%=      5-min Rain = 0
KLO1 210049Z 14009KT 34/13 A3001 RMK A01 T03440128  RH  027%=      5-min Rain = 0
KLO1 210050Z 14009KT 34/13 A3001 RMK A01 T03440127  RH  027%=      5-min Rain = 0
KLO1 210051Z 14008KT 35/13 A3001 RMK A01 T03450128  RH  027%=      5-min Rain = 0
KLO1 210052Z 14007KT 35/13 A3001 RMK A01 T03450129  RH  027%=      5-min Rain = 0
KLO1 210053Z 14007KT 34/13 A3001 RMK A01 T03440129  RH  027%=      5-min Rain = 0
KLO1 210054Z 14007KT 34/13 A3001 RMK A01 T03430130  RH  028%=      5-min Rain = 0
KLO1 210055Z 14007KT 34/13 A3001 RMK A01 T03420130  RH  028%=      5-min Rain = 0
KLO1 210056Z 14009KT 34/13 A3001 RMK A01 T03410129  RH  028%=      5-min Rain = 0
KLO1 210057Z 15009KT 34/13 A3001 RMK A01 T03410130  RH  028%=      5-min Rain = 0
KLO1 210058Z 15008KT 34/13 A3001 RMK A01 T03410130  RH  028%=      5-min Rain = 0
KLO1 210059Z 14009KT 34/13 A3001 RMK A01 T03410130  RH  028%=      5-min Rain = 0
KLO1 210100Z 14009KT 34/13 A3001 RMK A01 T03410130  RH  028%=      5-min Rain = 0
KLO1 210101Z 14008KT 34/13 A3001 RMK A01 T03400130  RH  028%=      5-min Rain = 0
KLO1 210102Z 13009KT 34/13 A3001 RMK A01 T03400130  RH  028%=      5-min Rain = 0
KLO1 210103Z 14008KT 34/13 A3001 RMK A01 T03410130  RH  028%=      5-min Rain = 0
KLO1 210104Z 13007KT 34/13 A3001 RMK A01 T03410131  RH  028%=      5-min Rain = 0
KLO1 210105Z 13007KT 34/13 A3001 RMK A01 T03400132  RH  028%=      5-min Rain = 0
KLO1 210106Z 13008KT 34/13 A3001 RMK A01 T03390131  RH  029%=      5-min Rain = 0
KLO1 210107Z 13008KT 34/13 A3001 RMK A01 T03390131  RH  029%=      5-min Rain = 0
KLO1 210108Z 13009KT 34/13 A3001 RMK A01 T03390130  RH  028%=      5-min Rain = 0
KLO1 210109Z 13008KT 34/13 A3001 RMK A01 T03390129  RH  028%=      5-min Rain = 0
KLO1 210110Z 13010KT 34/13 A3001 RMK A01 T03390128  RH  028%=      5-min Rain = 0
KLO1 210111Z 13008KT 34/13 A3001 RMK A01 T03400128  RH  028%=      5-min Rain = 0
KLO1 210112Z 14008KT 34/13 A3001 RMK A01 T03400129  RH  028%=      5-min Rain = 0
KLO1 210113Z 14007KT 34/13 A3001 RMK A01 T03400129  RH  028%=      5-min Rain = 0
KLO1 210114Z 14007KT 34/13 A3001 RMK A01 T03390130  RH  028%=      5-min Rain = 0
KLO1 210115Z 14007KT 34/13 A3001 RMK A01 T03380130  RH  029%=      5-min Rain = 0
KLO1 210116Z 13007KT 34/13 A3001 RMK A01 T03360131  RH  029%=      5-min Rain = 0
KLO1 210117Z 13007KT 34/13 A3001 RMK A01 T03350130  RH  029%=      5-min Rain = 0
KLO1 210118Z 13006KT 34/13 A3001 RMK A01 T03350130  RH  029%=      5-min Rain = 0
KLO1 210119Z 13007KT 33/13 A3001 RMK A01 T03340130  RH  029%=      5-min Rain = 0
KLO1 210120Z 13007KT 33/13 A3001 RMK A01 T03340130  RH  029%=      5-min Rain = 0
KLO1 210121Z 14007KT 33/13 A3001 RMK A01 T03330129  RH  029%=      5-min Rain = 0
KLO1 210122Z 13008KT 33/13 A3001 RMK A01 T03340130  RH  029%=      5-min Rain = 0
KLO1 210123Z 13007KT 33/13 A3001 RMK A01 T03330129  RH  029%=      5-min Rain = 0
KLO1 210124Z 13008KT 33/13 A3001 RMK A01 T03330130  RH  029%=      5-min Rain = 0
KLO1 210125Z 13009KT 33/13 A3001 RMK A01 T03330129  RH  029%=      5-min Rain = 0
KLO1 210126Z 13007KT 33/13 A3001 RMK A01 T03330128  RH  029%=      5-min Rain = 0
KLO1 210127Z 13007KT 33/13 A3001 RMK A01 T03330128  RH  029%=      5-min Rain = 0
KLO1 210128Z 13007KT 33/13 A3001 RMK A01 T03340128  RH  029%=      5-min Rain = 0
KLO1 210129Z 13008KT 33/13 A3001 RMK A01 T03340128  RH  029%=      5-min Rain = 0
KLO1 210130Z 13008KT 33/13 A3001 RMK A01 T03330127  RH  029%=      5-min Rain = 0
KLO1 210131Z 13007KT 33/13 A3001 RMK A01 T03330128  RH  029%=      5-min Rain = 0
KLO1 210132Z 13007KT 33/13 A3001 RMK A01 T03330128  RH  029%=      5-min Rain = 0
KLO1 210133Z 13007KT 33/13 A3001 RMK A01 T03320127  RH  029%=      5-min Rain = 0
KLO1 210134Z 13008KT 33/13 A3002 RMK A01 T03310127  RH  029%=      5-min Rain = 0
KLO1 210135Z 13007KT 33/13 A3002 RMK A01 T03310127  RH  029%=      5-min Rain = 0
KLO1 210136Z 13008KT 33/13 A3002 RMK A01 T03310127  RH  029%=      5-min Rain = 0
KLO1 210137Z 13007KT 33/13 A3002 RMK A01 T03310127  RH  029%=      5-min Rain = 0
KLO1 210138Z 13006KT 33/13 A3002 RMK A01 T03300127  RH  029%=      5-min Rain = 0
KLO1 210139Z 13006KT 33/13 A3002 RMK A01 T03290127  RH  029%=      5-min Rain = 0
KLO1 210140Z 13006KT 33/13 A3002 RMK A01 T03280127  RH  029%=      5-min Rain = 0
KLO1 210141Z 13006KT 33/13 A3002 RMK A01 T03280127  RH  030%=      5-min Rain = 0
KLO1 210142Z 13006KT 33/13 A3002 RMK A01 T03260127  RH  030%=      5-min Rain = 0
KLO1 210143Z 13006KT 33/13 A3002 RMK A01 T03260127  RH  030%=      5-min Rain = 0
KLO1 210144Z 13006KT 33/13 A3002 RMK A01 T03250127  RH  030%=      5-min Rain = 0
KLO1 210145Z 12007KT 32/13 A3002 RMK A01 T03240127  RH  030%=      5-min Rain = 0
KLO1 210146Z 13006KT 32/13 A3002 RMK A01 T03240126  RH  030%=      5-min Rain = 0
KLO1 210147Z 13006KT 32/13 A3002 RMK A01 T03240126  RH  030%=      5-min Rain = 0
KLO1 210148Z 13005KT 32/13 A3002 RMK A01 T03230127  RH  030%=      5-min Rain = 0
KLO1 210149Z 13006KT 32/13 A3002 RMK A01 T03220128  RH  031%=      5-min Rain = 0
KLO1 210150Z 13006KT 32/13 A3002 RMK A01 T03210127  RH  031%=      5-min Rain = 0
KLO1 210151Z 13006KT 32/13 A3002 RMK A01 T03190128  RH  031%=      5-min Rain = 0
KLO1 210152Z 13007KT 32/13 A3002 RMK A01 T03180128  RH  031%=      5-min Rain = 0
KLO1 210153Z 13006KT 32/13 A3002 RMK A01 T03170127  RH  031%=      5-min Rain = 0
KLO1 210154Z 13006KT 32/13 A3002 RMK A01 T03170127  RH  031%=      5-min Rain = 0
KLO1 210155Z 12006KT 32/13 A3002 RMK A01 T03170127  RH  032%=      5-min Rain = 0
KLO1 210156Z 13006KT 32/13 A3002 RMK A01 T03160127  RH  032%=      5-min Rain = 0
KLO1 210157Z 13006KT 32/13 A3002 RMK A01 T03160127  RH  032%=      5-min Rain = 0
KLO1 210158Z 13006KT 32/13 A3002 RMK A01 T03150127  RH  032%=      5-min Rain = 0
KLO1 210159Z 13006KT 32/13 A3002 RMK A01 T03150127  RH  032%=      5-min Rain = 0
KLO1 210200Z 13006KT 31/13 A3002 RMK A01 T03140127  RH  032%=      5-min Rain = 0
KLO1 210201Z 13006KT 31/13 A3002 RMK A01 T03130127  RH  032%=      5-min Rain = 0
KLO1 210202Z 13006KT 31/13 A3002 RMK A01 T03130127  RH  032%=      5-min Rain = 0
KLO1 210203Z 13006KT 31/13 A3003 RMK A01 T03120127  RH  032%=      5-min Rain = 0
KLO1 210204Z 13006KT 31/13 A3003 RMK A01 T03120127  RH  032%=      5-min Rain = 0
KLO1 210205Z 13006KT 31/13 A3003 RMK A01 T03120127  RH  032%=      5-min Rain = 0
KLO1 210206Z 13006KT 31/13 A3003 RMK A01 T03110127  RH  032%=      5-min Rain = 0
KLO1 210207Z 13006KT 31/13 A3003 RMK A01 T03110126  RH  032%=      5-min Rain = 0
KLO1 210208Z 13006KT 31/13 A3003 RMK A01 T03110127  RH  033%=      5-min Rain = 0
KLO1 210209Z 13006KT 31/13 A3003 RMK A01 T03100127  RH  033%=      5-min Rain = 0
KLO1 210210Z 13006KT 31/13 A3003 RMK A01 T03100127  RH  033%=      5-min Rain = 0
KLO1 210211Z 13006KT 31/13 A3003 RMK A01 T03100127  RH  033%=      5-min Rain = 0
KLO1 210212Z 13006KT 31/13 A3003 RMK A01 T03090127  RH  033%=      5-min Rain = 0
KLO1 210213Z 13007KT 31/13 A3003 RMK A01 T03090127  RH  033%=      5-min Rain = 0
KLO1 210214Z 13006KT 31/13 A3003 RMK A01 T03090127  RH  033%=      5-min Rain = 0
KLO1 210215Z 13007KT 31/13 A3003 RMK A01 T03090127  RH  033%=      5-min Rain = 0
KLO1 210216Z 13007KT 31/13 A3003 RMK A01 T03090127  RH  033%=      5-min Rain = 0
KLO1 210217Z 13007KT 31/13 A3003 RMK A01 T03090127  RH  033%=      5-min Rain = 0
KLO1 210218Z 13007KT 31/13 A3003 RMK A01 T03080127  RH  033%=      5-min Rain = 0
KLO1 210219Z 13007KT 31/13 A3003 RMK A01 T03080127  RH  033%=      5-min Rain = 0
KLO1 210220Z 13007KT 31/13 A3003 RMK A01 T03080126  RH  033%=      5-min Rain = 0
KLO1 210221Z 13007KT 31/13 A3003 RMK A01 T03080126  RH  033%=      5-min Rain = 0
KLO1 210222Z 13007KT 31/13 A3003 RMK A01 T03080126  RH  033%=      5-min Rain = 0
KLO1 210223Z 13007KT 31/13 A3003 RMK A01 T03070125  RH  033%=      5-min Rain = 0
KLO1 210224Z 13006KT 31/13 A3003 RMK A01 T03070125  RH  033%=      5-min Rain = 0
KLO1 210225Z 13006KT 31/12 A3003 RMK A01 T03070124  RH  033%=      5-min Rain = 0
KLO1 210226Z 13006KT 31/12 A3003 RMK A01 T03070124  RH  033%=      5-min Rain = 0
KLO1 210227Z 13006KT 31/12 A3003 RMK A01 T03070124  RH  032%=      5-min Rain = 0
KLO1 210228Z 13006KT 31/12 A3003 RMK A01 T03080123  RH  032%=      5-min Rain = 0
KLO1 210229Z 13006KT 31/12 A3003 RMK A01 T03080123  RH  032%=      5-min Rain = 0
KLO1 210230Z 13007KT 31/12 A3003 RMK A01 T03080122  RH  032%=      5-min Rain = 0
KLO1 210231Z 13007KT 31/12 A3003 RMK A01 T03080122  RH  032%=      5-min Rain = 0
KLO1 210232Z 13006KT 31/12 A3003 RMK A01 T03090122  RH  032%=      5-min Rain = 0
KLO1 210233Z 13006KT 31/12 A3004 RMK A01 T03090122  RH  032%=      5-min Rain = 0
KLO1 210234Z 13006KT 31/12 A3004 RMK A01 T03090122  RH  032%=      5-min Rain = 0
KLO1 210235Z 13006KT 31/12 A3004 RMK A01 T03090122  RH  032%=      5-min Rain = 0
KLO1 210236Z 13006KT 31/12 A3004 RMK A01 T03090122  RH  032%=      5-min Rain = 0
KLO1 210237Z 13005KT 31/12 A3004 RMK A01 T03080122  RH  032%=      5-min Rain = 0
KLO1 210238Z 13005KT 31/12 A3004 RMK A01 T03070122  RH  032%=      5-min Rain = 0
KLO1 210239Z 13005KT 31/12 A3004 RMK A01 T03060122  RH  032%=      5-min Rain = 0
KLO1 210240Z 13005KT 31/12 A3004 RMK A01 T03050122  RH  032%=      5-min Rain = 0
KLO1 210241Z 13005KT 30/12 A3004 RMK A01 T03040122  RH  033%=      5-min Rain = 0
KLO1 210242Z 13006KT 30/12 A3004 RMK A01 T03040122  RH  033%=      5-min Rain = 0
KLO1 210243Z 13005KT 30/12 A3004 RMK A01 T03040123  RH  033%=      5-min Rain = 0
KLO1 210244Z 13006KT 30/12 A3004 RMK A01 T03030122  RH  033%=      5-min Rain = 0
KLO1 210245Z 13006KT 30/12 A3004 RMK A01 T03020122  RH  033%=      5-min Rain = 0
KLO1 210246Z 13005KT 30/12 A3004 RMK A01 T03010122  RH  033%=      5-min Rain = 0
KLO1 210247Z 12005KT 30/12 A3004 RMK A01 T03010122  RH  033%=      5-min Rain = 0
KLO1 210248Z 12005KT 30/12 A3004 RMK A01 T03010122  RH  033%=      5-min Rain = 0
KLO1 210249Z 12005KT 30/12 A3004 RMK A01 T03000122  RH  033%=      5-min Rain = 0
KLO1 210250Z 12005KT 30/12 A3004 RMK A01 T03000122  RH  033%=      5-min Rain = 0
KLO1 210251Z 12005KT 30/12 A3004 RMK A01 T03000122  RH  033%=      5-min Rain = 0
KLO1 210252Z 12005KT 30/12 A3004 RMK A01 T02990121  RH  033%=      5-min Rain = 0
KLO1 210253Z 12005KT 30/12 A3004 RMK A01 T02990121  RH  033%=      5-min Rain = 0
KLO1 210254Z 12005KT 30/12 A3004 RMK A01 T02980121  RH  034%=      5-min Rain = 0
KLO1 210255Z 12005KT 30/12 A3004 RMK A01 T02980121  RH  034%=      5-min Rain = 0
KLO1 210256Z 13005KT 30/12 A3004 RMK A01 T02970121  RH  034%=      5-min Rain = 0
KLO1 210257Z 13005KT 30/12 A3004 RMK A01 T02970122  RH  034%=      5-min Rain = 0
KLO1 210258Z 13005KT 30/12 A3004 RMK A01 T02960122  RH  034%=      5-min Rain = 0
KLO1 210259Z 13005KT 30/12 A3004 RMK A01 T02950122  RH  034%=      5-min Rain = 0
KLO1 210300Z 13005KT 29/12 A3004 RMK A01 T02940122  RH  035%=      5-min Rain = 0
KLO1 210301Z 13004KT 29/12 A3004 RMK A01 T02940123  RH  035%=      5-min Rain = 0
KLO1 210302Z 13005KT 29/12 A3004 RMK A01 T02920123  RH  035%=      5-min Rain = 0
KLO1 210303Z 13005KT 29/12 A3004 RMK A01 T02920124  RH  035%=      5-min Rain = 0
KLO1 210304Z 12005KT 29/12 A3004 RMK A01 T02900123  RH  036%=      5-min Rain = 0
KLO1 210305Z 12005KT 29/12 A3004 RMK A01 T02900123  RH  036%=      5-min Rain = 0
KLO1 210306Z 12005KT 29/12 A3005 RMK A01 T02890123  RH  036%=      5-min Rain = 0
KLO1 210307Z 12005KT 29/12 A3005 RMK A01 T02900123  RH  036%=      5-min Rain = 0
KLO1 210308Z 12005KT 29/12 A3005 RMK A01 T02890123  RH  036%=      5-min Rain = 0
KLO1 210309Z 13005KT 29/12 A3005 RMK A01 T02890123  RH  036%=      5-min Rain = 0
KLO1 210310Z 13005KT 29/12 A3005 RMK A01 T02890123  RH  036%=      5-min Rain = 0
KLO1 210311Z 12006KT 29/12 A3005 RMK A01 T02890123  RH  036%=      5-min Rain = 0
KLO1 210312Z 13006KT 29/12 A3005 RMK A01 T02890123  RH  036%=      5-min Rain = 0
KLO1 210313Z 13006KT 29/12 A3005 RMK A01 T02890123  RH  036%=      5-min Rain = 0
KLO1 210314Z 13006KT 29/12 A3005 RMK A01 T02890123  RH  036%=      5-min Rain = 0
KLO1 210315Z 13006KT 29/12 A3005 RMK A01 T02890123  RH  036%=      5-min Rain = 0
KLO1 210316Z 13005KT 29/12 A3005 RMK A01 T02890123  RH  036%=      5-min Rain = 0
KLO1 210317Z 13006KT 29/12 A3005 RMK A01 T02890123  RH  036%=      5-min Rain = 0
KLO1 210318Z 13005KT 29/12 A3005 RMK A01 T02890123  RH  036%=      5-min Rain = 0
KLO1 210319Z 13006KT 29/12 A3005 RMK A01 T02890124  RH  036%=      5-min Rain = 0
KLO1 210320Z 13006KT 29/12 A3005 RMK A01 T02880124  RH  036%=      5-min Rain = 0
KLO1 210321Z 13005KT 29/13 A3005 RMK A01 T02880125  RH  036%=      5-min Rain = 0
KLO1 210322Z 13005KT 29/13 A3005 RMK A01 T02870125  RH  037%=      5-min Rain = 0
KLO1 210323Z 13006KT 29/13 A3005 RMK A01 T02870126  RH  037%=      5-min Rain = 0
KLO1 210324Z 13006KT 29/13 A3005 RMK A01 T02860126  RH  037%=      5-min Rain = 0
KLO1 210325Z 13006KT 29/13 A3005 RMK A01 T02850126  RH  037%=      5-min Rain = 0
KLO1 210326Z 13005KT 29/13 A3005 RMK A01 T02850126  RH  038%=      5-min Rain = 0
KLO1 210327Z 13005KT 28/13 A3005 RMK A01 T02840126  RH  038%=      5-min Rain = 0
KLO1 210328Z 13005KT 28/13 A3005 RMK A01 T02840126  RH  038%=      5-min Rain = 0
KLO1 210329Z 13005KT 28/13 A3005 RMK A01 T02830126  RH  038%=      5-min Rain = 0
KLO1 210330Z 13005KT 28/13 A3005 RMK A01 T02830126  RH  038%=      5-min Rain = 0
KLO1 210331Z 13005KT 28/13 A3005 RMK A01 T02820126  RH  038%=      5-min Rain = 0
KLO1 210332Z 13005KT 28/13 A3005 RMK A01 T02820127  RH  038%=      5-min Rain = 0
KLO1 210333Z 13005KT 28/13 A3005 RMK A01 T02810127  RH  038%=      5-min Rain = 0
KLO1 210334Z 13006KT 28/13 A3005 RMK A01 T02810126  RH  038%=      5-min Rain = 0
KLO1 210335Z 13005KT 28/13 A3005 RMK A01 T02810127  RH  039%=      5-min Rain = 0
KLO1 210336Z 13006KT 28/13 A3005 RMK A01 T02800127  RH  039%=      5-min Rain = 0
KLO1 210337Z 13006KT 28/13 A3005 RMK A01 T02800127  RH  039%=      5-min Rain = 0
KLO1 210338Z 13005KT 28/13 A3005 RMK A01 T02790127  RH  039%=      5-min Rain = 0
KLO1 210339Z 13005KT 28/13 A3005 RMK A01 T02790127  RH  039%=      5-min Rain = 0
KLO1 210340Z 13005KT 28/13 A3006 RMK A01 T02780128  RH  039%=      5-min Rain = 0
KLO1 210341Z 13005KT 28/13 A3006 RMK A01 T02780128  RH  039%=      5-min Rain = 0
KLO1 210342Z 13005KT 28/13 A3006 RMK A01 T02770128  RH  040%=      5-min Rain = 0
KLO1 210343Z 13005KT 28/13 A3006 RMK A01 T02770128  RH  040%=      5-min Rain = 0
KLO1 210344Z 13005KT 28/13 A3006 RMK A01 T02760128  RH  040%=      5-min Rain = 0
KLO1 210345Z 12005KT 28/13 A3006 RMK A01 T02760128  RH  040%=      5-min Rain = 0
KLO1 210346Z 12005KT 28/13 A3006 RMK A01 T02750127  RH  040%=      5-min Rain = 0
KLO1 210347Z 12004KT 28/13 A3006 RMK A01 T02750127  RH  040%=      5-min Rain = 0
KLO1 210348Z 11003KT 28/13 A3006 RMK A01 T02750127  RH  040%=      5-min Rain = 0
KLO1 210349Z 11003KT 27/13 A3006 RMK A01 T02740127  RH  040%=      5-min Rain = 0
KLO1 210350Z 11004KT 27/13 A3006 RMK A01 T02730127  RH  040%=      5-min Rain = 0
KLO1 210351Z 12005KT 27/13 A3006 RMK A01 T02730127  RH  040%=      5-min Rain = 0
KLO1 210352Z 12005KT 27/13 A3006 RMK A01 T02730127  RH  040%=      5-min Rain = 0
KLO1 210353Z 12005KT 27/13 A3006 RMK A01 T02720127  RH  041%=      5-min Rain = 0
KLO1 210354Z 13006KT 27/13 A3006 RMK A01 T02720127  RH  041%=      5-min Rain = 0
KLO1 210355Z 12006KT 27/13 A3006 RMK A01 T02710126  RH  041%=      5-min Rain = 0
KLO1 210356Z 13006KT 27/13 A3006 RMK A01 T02710126  RH  041%=      5-min Rain = 0
KLO1 210357Z 13006KT 27/13 A3006 RMK A01 T02710127  RH  041%=      5-min Rain = 0
KLO1 210358Z 12005KT 27/13 A3006 RMK A01 T02710126  RH  041%=      5-min Rain = 0
KLO1 210359Z 12004KT 27/13 A3006 RMK A01 T02710126  RH  041%=      5-min Rain = 0
KLO1 210400Z 12004KT 27/13 A3006 RMK A01 T02710125  RH  040%=      5-min Rain = 0
KLO1 210401Z 12005KT 27/13 A3006 RMK A01 T02710125  RH  040%=      5-min Rain = 0
KLO1 210402Z 13006KT 27/13 A3006 RMK A01 T02700125  RH  040%=      5-min Rain = 0
KLO1 210403Z 13006KT 27/13 A3006 RMK A01 T02700125  RH  041%=      5-min Rain = 0
KLO1 210404Z 13006KT 27/13 A3006 RMK A01 T02700126  RH  041%=      5-min Rain = 0
KLO1 210405Z 13006KT 27/13 A3006 RMK A01 T02700126  RH  041%=      5-min Rain = 0
KLO1 210406Z 13005KT 27/13 A3006 RMK A01 T02700126  RH  041%=      5-min Rain = 0
KLO1 210407Z 13005KT 27/13 A3006 RMK A01 T02690126  RH  041%=      5-min Rain = 0
KLO1 210408Z 13005KT 27/13 A3006 RMK A01 T02690126  RH  041%=      5-min Rain = 0
KLO1 210409Z 13005KT 27/13 A3006 RMK A01 T02690127  RH  041%=      5-min Rain = 0
KLO1 210410Z 13005KT 27/13 A3006 RMK A01 T02680127  RH  042%=      5-min Rain = 0
KLO1 210411Z 13005KT 27/13 A3006 RMK A01 T02680127  RH  042%=      5-min Rain = 0
KLO1 210412Z 13005KT 27/13 A3006 RMK A01 T02670127  RH  042%=      5-min Rain = 0
KLO1 210413Z 13004KT 27/13 A3006 RMK A01 T02680127  RH  042%=      5-min Rain = 0
KLO1 210414Z 13004KT 27/13 A3006 RMK A01 T02680127  RH  042%=      5-min Rain = 0
KLO1 210415Z 14004KT 27/13 A3006 RMK A01 T02680127  RH  042%=      5-min Rain = 0
KLO1 210416Z 14004KT 27/13 A3006 RMK A01 T02670127  RH  042%=      5-min Rain = 0
KLO1 210417Z 14004KT 27/13 A3006 RMK A01 T02670127  RH  042%=      5-min Rain = 0
KLO1 210418Z 14004KT 27/13 A3006 RMK A01 T02670127  RH  042%=      5-min Rain = 0
KLO1 210419Z 14004KT 27/13 A3006 RMK A01 T02670128  RH  042%=      5-min Rain = 0
KLO1 210420Z 14004KT 27/13 A3006 RMK A01 T02660128  RH  042%=      5-min Rain = 0
KLO1 210421Z 14004KT 27/13 A3006 RMK A01 T02660128  RH  043%=      5-min Rain = 0
KLO1 210422Z 14004KT 27/13 A3006 RMK A01 T02650128  RH  043%=      5-min Rain = 0
KLO1 210423Z 13004KT 27/13 A3006 RMK A01 T02650128  RH  043%=      5-min Rain = 0
KLO1 210424Z 13004KT 27/13 A3006 RMK A01 T02650128  RH  043%=      5-min Rain = 0
KLO1 210425Z 13005KT 26/13 A3006 RMK A01 T02640128  RH  043%=      5-min Rain = 0
KLO1 210426Z 13005KT 26/13 A3006 RMK A01 T02640128  RH  043%=      5-min Rain = 0
KLO1 210427Z 13005KT 26/13 A3006 RMK A01 T02630128  RH  043%=      5-min Rain = 0
KLO1 210428Z 13005KT 26/13 A3006 RMK A01 T02630128  RH  043%=      5-min Rain = 0
KLO1 210429Z 13005KT 26/13 A3006 RMK A01 T02630128  RH  043%=      5-min Rain = 0
KLO1 210430Z 13004KT 26/13 A3006 RMK A01 T02620128  RH  043%=      5-min Rain = 0
KLO1 210431Z 13005KT 26/13 A3006 RMK A01 T02620128  RH  044%=      5-min Rain = 0
KLO1 210432Z 14005KT 26/13 A3006 RMK A01 T02620129  RH  044%=      5-min Rain = 0
KLO1 210433Z 13005KT 26/13 A3006 RMK A01 T02610128  RH  044%=      5-min Rain = 0
KLO1 210434Z 13005KT 26/13 A3006 RMK A01 T02610129  RH  044%=      5-min Rain = 0
KLO1 210435Z 13005KT 26/13 A3006 RMK A01 T02610128  RH  044%=      5-min Rain = 0
KLO1 210436Z 13005KT 26/13 A3006 RMK A01 T02610128  RH  044%=      5-min Rain = 0
KLO1 210437Z 13005KT 26/13 A3006 RMK A01 T02610128  RH  044%=      5-min Rain = 0
KLO1 210438Z 13005KT 26/13 A3006 RMK A01 T02610128  RH  044%=      5-min Rain = 0
KLO1 210439Z 13005KT 26/13 A3005 RMK A01 T02600128  RH  044%=      5-min Rain = 0
KLO1 210440Z 13004KT 26/13 A3006 RMK A01 T02600128  RH  044%=      5-min Rain = 0
KLO1 210441Z 13004KT 26/13 A3006 RMK A01 T02600128  RH  044%=      5-min Rain = 0
KLO1 210442Z 13004KT 26/13 A3006 RMK A01 T02600128  RH  044%=      5-min Rain = 0
KLO1 210443Z 13004KT 26/13 A3006 RMK A01 T02600128  RH  044%=      5-min Rain = 0
KLO1 210444Z 13004KT 26/13 A3005 RMK A01 T02600128  RH  044%=      5-min Rain = 0
KLO1 210445Z 13004KT 26/13 A3005 RMK A01 T02590128  RH  044%=      5-min Rain = 0
KLO1 210446Z 13004KT 26/13 A3005 RMK A01 T02590128  RH  044%=      5-min Rain = 0
KLO1 210447Z 13004KT 26/13 A3005 RMK A01 T02590128  RH  044%=      5-min Rain = 0
KLO1 210448Z 13004KT 26/13 A3005 RMK A01 T02580128  RH  044%=      5-min Rain = 0
KLO1 210449Z 13004KT 26/13 A3005 RMK A01 T02580128  RH  044%=      5-min Rain = 0
KLO1 210450Z 12004KT 26/13 A3005 RMK A01 T02580127  RH  044%=      5-min Rain = 0
KLO1 210451Z 13004KT 26/13 A3005 RMK A01 T02580127  RH  044%=      5-min Rain = 0
KLO1 210452Z 13004KT 26/13 A3005 RMK A01 T02580126  RH  044%=      5-min Rain = 0
KLO1 210453Z 13004KT 26/13 A3005 RMK A01 T02580126  RH  044%=      5-min Rain = 0
KLO1 210454Z 13004KT 26/13 A3005 RMK A01 T02580126  RH  044%=      5-min Rain = 0
KLO1 210455Z 13004KT 26/13 A3005 RMK A01 T02580126  RH  044%=      5-min Rain = 0
KLO1 210456Z 13004KT 26/13 A3005 RMK A01 T02580126  RH  044%=      5-min Rain = 0
KLO1 210457Z 13004KT 26/13 A3005 RMK A01 T02580126  RH  044%=      5-min Rain = 0
KLO1 210458Z 13004KT 26/13 A3005 RMK A01 T02580126  RH  044%=      5-min Rain = 0
KLO1 210459Z 13004KT 26/13 A3005 RMK A01 T02580126  RH  044%=      5-min Rain = 0

Page generated in 0.072 seconds.